GEFSNE_850_meantemp_006.txt.gz
Temperature
14 14 13 14 14 14 14 14 14 14 14 14 14 14 14 14 15 15 15 15 15 15 15 15 15 15 15 15 15 15 15 15 16 16 16 16 16 16
13 13 13 13 13 14 14 14 14 14 14 14 14 14 14 14 14 14 14 15 15 15 15 15 15 15 15 14 14 14 14 14 15 15 15 15 15 16
13 13 13 13 13 13 13 14 14 14 14 13 13 13 14 14 13 13 14 14 14 15 15 15 14 14 14 14 14 13 13 14 14 14 15 15 15 15
12 13 13 13 13 13 13 13 13 14 13 13 13 13 13 13 13 13 13 13 14 14 14 14 13 13 13 13 13 13 13 13 13 13 14 14 15 15
12 12 12 13 13 13 13 13 13 13 13 13 13 13 13 13 13 13 13 13 13 13 13 13 12 12 13 13 13 13 13 13 13 13 13 14 14 15
12 12 12 13 13 13 13 13 13 13 13 13 13 13 12 12 13 13 12 12 12 12 12 12 12 12 12 12 12 12 12 12 12 12 13 13 14 14
12 12 12 12 12 12 12 13 13 13 13 13 13 12 12 12 12 12 12 12 12 12 12 12 12 12 12 12 12 12 12 12 12 12 13 13 13 13
12 12 12 12 12 12 12 12 12 12 12 12 12 12 11 11 11 12 11 11 11 11 12 12 12 12 11 11 11 11 11 11 12 12 13 13 13 13
12 12 12 12 12 11 11 11 12 12 12 12 12 11 11 11 11 11 11 11 10 10 11 11 12 11 11 11 11 11 11 11 11 12 12 13 13 13
11 11 12 11 11 11 11 11 11 11 11 11 11 11 11 11 11 11 11 11 10 10 10 11 11 11 10 10 10 10 10 10 10 11 11 12 13 13
11 11 12 12 11 11 11 11 11 11 11 11 11 11 10 10 10 10 10 10 10 10 10 10 10 11 10 10 10 10 10 10 10 10 10 11 12 12
11 11 11 11 11 11 11 11 11 11 11 11 11 10 10 10 10 10 10 10 9 9 9 9 9 10 10 9 9 9 9 10 9 9 10 10 10 11
11 11 11 11 11 11 11 11 10 10 10 10 10 10 9 9 9 9 9 9 9 9 9 9 9 9 9 9 8 8 9 9 9 9 9 9 10 10
11 11 11 10 10 10 10 9 9 9 9 9 9 9 9 9 8 8 8 8 8 8 8 8 8 8 8 8 8 8 8 8 8 9 9 9 9 9
11 11 10 10 9 9 9 9 9 9 8 8 8 8 8 8 8 8 8 8 8 8 8 8 8 8 8 8 8 8 8 7 8 8 8 8 8 9
10 10 10 9 9 9 9 9 8 8 8 7 7 7 8 8 8 8 8 7 7 7 7 7 7 7 7 7 7 7 7 7 7 7 7 8 8 8
10 10 10 9 9 9 9 9 8 8 8 7 7 7 7 7 7 7 7 7 7 7 7 7 7 7 7 7 7 7 7 7 7 7 7 7 7 7
10 10 10 9 9 9 9 9 8 8 8 7 7 7 7 7 7 7 7 7 6 6 6 6 7 7 7 6 7 6 7 7 7 7 7 7 6 6
10 10 10 10 10 10 9 9 9 8 8 7 7 7 7 7 7 7 7 7 6 6 6 6 6 6 6 6 6 6 6 6 6 6 6 6 6 6
10 10 10 10 10 10 9 9 9 9 8 7 7 7 7 7 7 6 6 6 6 6 6 6 6 6 6 6 6 6 6 6 6 6 5 5 5 5
10 10 10 10 10 10 10 9 9 9 8 8 7 7 7 7 7 7 6 6 6 6 6 6 5 6 6 6 6 6 5 5 5 5 5 5 5 5
10 10 10 10 10 10 10 9 9 9 8 8 8 7 7 7 7 7 6 6 6 6 5 5 5 5 5 6 5 5 5 5 5 5 4 4 4 3
10 10 10 10 10 10 10 10 9 9 9 8 8 8 7 7 7 7 6 6 6 6 5 5 5 5 5 5 5 5 5 4 4 4 4 4 3 3

GEFSNE_850_meantemp_012.txt.gz
Temperature
14 14 14 14 14 14 14 14 14 13 13 13 13 13 13 14 14 14 14 15 15 15 15 15 15 15 15 15 15 15 15 15 15 15 15 15 15 15
13 13 13 14 13 13 13 14 14 14 13 13 13 13 13 13 13 14 14 14 15 15 15 14 14 14 14 14 14 14 14 14 14 14 15 15 15 15
13 13 13 13 13 13 13 13 13 14 14 12 12 12 13 13 13 13 14 14 14 14 14 13 13 13 13 13 13 13 14 14 14 14 14 14 14 14
13 13 13 13 13 13 13 13 13 13 14 13 12 13 13 13 13 13 13 13 13 13 12 12 12 12 12 13 13 13 13 13 13 13 14 14 14 14
12 12 12 12 12 12 12 12 13 12 13 13 13 13 12 12 12 13 13 12 12 12 12 12 12 12 12 12 12 12 13 13 13 13 13 13 13 13
12 12 12 12 12 12 12 12 12 12 13 13 13 12 12 12 12 12 12 12 12 12 12 12 12 12 12 12 12 12 12 12 12 12 12 13 13 13
11 11 11 12 12 12 12 12 12 13 13 13 12 12 12 12 12 12 12 11 11 11 11 11 11 11 11 11 11 11 11 12 12 12 12 12 12 13
11 11 11 11 12 12 12 12 12 13 13 12 12 12 11 11 11 11 11 11 11 11 11 11 11 11 11 10 10 11 11 11 11 11 12 12 12 12
11 11 11 11 12 12 12 12 12 12 12 12 12 11 11 11 11 11 11 10 10 10 11 11 10 10 10 10 10 10 10 10 10 11 11 11 11 11
11 11 11 11 11 11 11 11 11 11 11 11 11 11 11 10 10 10 10 10 10 10 10 10 10 9 9 9 9 9 9 10 10 10 10 10 10 11
11 11 11 11 11 11 11 11 11 11 11 11 11 10 10 10 10 10 10 10 9 9 9 9 9 9 9 8 8 8 9 9 9 9 9 9 10 10
11 11 11 11 11 11 11 11 11 11 11 10 10 10 10 10 9 9 9 9 9 8 8 8 8 8 8 8 8 8 8 8 9 9 9 9 9 9
11 11 10 10 10 10 11 11 11 10 10 10 10 9 9 9 8 8 8 8 8 8 8 8 8 8 8 8 7 7 7 8 8 8 8 8 8 8
11 11 10 10 10 10 10 10 10 9 9 9 9 8 8 8 8 8 8 8 8 7 7 7 7 7 7 7 7 7 7 7 7 7 7 7 7 7
11 10 10 9 9 9 9 9 9 8 8 8 8 8 8 7 7 7 7 7 7 7 7 7 7 7 7 7 7 6 6 6 6 6 6 6 6 6
10 10 9 9 9 9 8 8 8 8 8 8 7 7 7 7 7 7 7 7 7 6 6 6 6 6 6 6 6 6 6 6 6 6 6 5 5 5
10 10 9 9 9 8 8 8 7 7 7 7 7 7 7 7 7 7 6 6 6 6 6 6 6 6 6 6 6 6 6 5 5 5 5 5 5 5
10 10 9 9 9 8 8 8 7 7 7 7 7 7 7 6 6 6 6 6 6 6 6 6 6 6 6 6 6 6 5 5 5 5 5 4 4 4
10 10 9 9 9 9 8 8 8 7 7 7 7 7 6 6 6 6 6 6 6 6 6 6 6 6 6 6 5 5 5 5 5 4 4 4 3 3
10 10 9 9 9 9 9 8 8 8 7 7 7 7 7 7 6 6 6 6 6 6 6 5 5 5 5 5 5 5 5 5 4 4 4 3 3 3
10 10 9 9 9 9 9 9 8 8 8 8 7 7 7 7 7 6 6 6 6 6 5 5 5 5 5 5 5 5 4 4 4 4 3 3 2 2
10 10 9 9 9 9 9 9 9 8 8 8 8 7 7 7 7 7 6 6 6 6 6 5 5 5 5 5 5 4 4 4 4 3 3 3 2 2
10 10 10 9 9 9 9 9 9 9 8 8 8 8 8 7 7 7 7 6 6 6 6 5 5 5 5 5 4 4 4 4 3 3 3 2 2 2

GEFSNE_850_meantemp_018.txt.gz
Temperature
14 14 14 14 14 14 14 15 14 15 14 14 14 14 14 14 14 14 14 14 14 14 14 14 14 15 15 15 15 15 15 16 16 16 16 16 16 16
14 14 14 14 14 14 14 14 14 14 14 13 13 13 13 13 13 13 13 14 14 14 14 14 14 14 14 14 15 15 15 15 15 15 15 15 15 15
13 13 13 14 14 14 14 14 14 14 14 13 13 12 13 13 13 13 13 13 13 13 13 13 13 13 13 13 14 14 14 14 14 14 14 14 14 14
13 13 13 13 13 14 14 14 14 14 13 12 12 12 12 12 12 12 12 12 12 12 12 12 12 12 12 13 13 13 13 13 13 14 14 14 14 14
13 13 13 13 13 13 13 13 13 13 13 12 11 11 11 11 11 11 11 11 12 12 12 12 12 12 12 12 12 12 13 13 13 13 13 13 13 13
12 12 12 12 12 13 12 13 13 12 12 12 11 11 11 11 11 11 11 11 11 11 11 11 11 11 11 12 12 12 12 12 12 12 13 13 13 13
12 12 12 12 12 12 12 12 12 12 11 11 11 11 11 11 12 12 12 11 11 11 11 11 10 10 10 11 11 11 11 11 11 12 12 12 12 13
12 12 12 12 12 12 12 12 11 11 12 12 12 12 11 12 12 12 12 12 12 11 11 11 10 10 10 10 10 10 10 10 11 11 11 11 12 12
11 11 11 11 11 11 11 11 11 11 12 12 12 12 11 11 12 12 12 13 12 11 11 11 10 9 9 9 9 9 9 9 10 10 10 10 10 11
11 11 11 11 11 11 11 11 11 11 11 11 11 11 11 11 11 11 11 11 11 10 11 11 10 9 9 8 8 8 9 9 9 9 9 9 10 10
11 11 11 11 11 11 11 11 11 11 11 11 11 11 11 11 11 11 11 11 11 10 10 11 10 10 9 8 8 8 8 8 8 8 8 8 9 8
11 11 11 11 11 11 11 11 11 11 11 11 11 10 10 10 10 10 11 12 11 10 10 10 10 10 9 9 8 8 8 7 7 7 7 7 8 7
11 11 11 11 11 11 11 11 11 11 10 10 10 10 10 9 9 10 10 11 11 10 9 10 10 10 10 9 9 8 8 7 7 7 7 6 6 6
12 11 11 11 11 11 11 11 11 11 10 10 10 10 10 9 9 9 9 9 9 8 8 9 9 9 10 10 9 9 8 7 7 7 6 6 6 5
11 11 11 11 11 11 11 11 10 10 10 10 10 10 9 8 8 8 8 8 8 8 7 8 8 9 9 9 9 8 8 8 7 6 6 6 6 6
11 11 10 10 10 10 10 10 10 10 10 10 10 9 8 8 8 8 8 8 8 7 7 7 7 8 8 8 8 8 8 8 7 6 6 6 6 6
10 10 10 9 9 9 9 9 9 9 9 9 9 9 9 9 9 9 9 9 9 8 8 7 7 7 7 8 8 8 8 7 7 6 6 6 6 6
10 10 10 10 10 10 10 9 9 9 9 9 9 9 9 9 9 9 9 9 9 9 9 8 8 8 8 7 7 7 7 7 7 6 6 6 6 6
10 11 11 10 10 10 10 10 9 9 9 9 9 9 9 9 9 9 9 9 9 9 8 8 8 9 10 10 7 7 6 6 6 6 6 6 6 6
11 11 11 11 11 10 10 10 9 9 9 9 9 9 9 9 9 9 9 9 9 9 9 8 8 8 8 9 8 7 6 6 6 5 6 6 6 5
10 11 11 11 11 10 10 10 10 9 9 9 9 9 9 9 9 9 9 8 9 9 9 8 8 7 7 7 8 8 7 6 5 5 5 5 5 5
11 11 11 11 11 11 10 10 10 9 9 9 9 9 9 9 9 9 9 9 9 9 9 8 7 7 8 8 8 8 8 7 6 6 5 5 4 4
11 11 11 11 11 10 10 10 10 10 9 9 9 9 9 9 10 9 9 9 9 9 9 9 8 8 8 8 8 8 8 7 7 7 6 5 5 4

GEFSNE_850_meantemp_024.txt.gz
Temperature
14 14 14 14 14 14 14 14 14 15 15 15 15 15 16 16 15 15 15 14 14 14 14 14 14 14 15 15 15 15 15 15 15 16 16 16 16 16
14 14 14 14 14 14 14 15 15 14 14 15 15 15 15 14 14 14 14 14 14 14 14 14 14 14 14 14 14 15 15 15 15 15 15 15 16 16
14 14 14 14 14 14 14 14 14 14 14 14 14 14 14 14 13 13 13 13 13 13 13 13 13 13 13 13 14 14 14 14 14 14 15 15 15 15
14 14 14 14 14 14 14 14 14 14 14 14 13 13 13 13 13 13 13 13 12 12 12 12 12 12 13 13 13 13 13 13 14 14 14 14 14 14
14 14 14 14 14 14 14 14 14 14 14 14 13 13 12 12 12 12 12 12 12 11 11 12 12 12 12 12 12 13 13 13 13 13 13 13 13 14
13 13 13 14 14 14 14 14 14 14 13 13 12 12 12 11 12 11 11 11 11 11 11 11 11 12 12 12 12 12 12 12 12 13 13 13 13 13
13 13 13 13 13 13 13 13 13 13 13 12 12 11 11 11 11 11 11 11 11 11 11 11 11 11 11 11 11 11 11 12 12 12 12 12 12 13
13 13 13 13 13 13 13 13 13 13 12 12 11 11 11 11 11 11 11 11 10 11 11 10 10 11 10 10 10 10 10 11 11 11 11 11 11 11
13 13 12 12 12 12 12 12 12 12 12 12 11 11 11 11 11 11 11 11 11 11 11 10 10 10 10 10 10 10 10 10 10 10 10 10 10 10
12 12 12 12 12 12 12 11 11 11 11 11 11 11 11 11 11 11 12 11 11 11 11 10 10 10 10 9 9 9 9 9 9 9 9 9 8 8
12 12 12 12 11 11 11 11 11 11 11 11 11 11 11 11 11 12 12 12 11 11 11 10 10 10 9 9 9 9 8 8 8 8 8 8 8 8
11 12 12 12 11 11 11 11 11 11 11 11 11 11 11 11 11 12 12 12 12 11 11 11 10 10 9 9 9 9 8 8 8 8 7 7 7 7
11 11 11 11 11 11 11 11 11 11 11 11 11 11 11 11 11 11 12 12 12 11 11 11 11 10 10 9 9 9 8 8 8 7 7 7 7 7
11 11 11 11 11 11 11 11 11 11 11 11 11 11 11 11 11 11 11 12 12 11 11 11 11 11 10 10 9 9 9 8 8 8 7 7 7 7
10 11 11 11 11 11 11 11 11 11 11 11 11 10 10 10 10 10 11 11 11 11 11 11 11 11 11 10 10 9 9 8 8 8 7 7 7 7
9 10 11 11 11 11 11 11 11 11 11 11 11 10 10 10 10 10 10 10 10 10 10 10 10 10 10 10 10 9 9 9 8 8 8 7 7 7
9 10 10 10 10 10 11 11 11 11 11 11 10 10 10 9 9 9 9 10 10 9 9 9 9 10 10 10 9 9 9 8 8 8 7 7 7 7
8 9 10 10 10 10 10 11 11 11 11 11 10 10 10 10 10 10 10 10 9 9 9 9 9 9 9 9 9 9 9 8 8 7 7 7 7 7
8 9 10 10 10 10 11 11 11 11 11 10 10 10 10 10 10 10 10 10 10 10 9 9 9 9 9 9 9 9 9 9 8 8 7 7 7 7
9 10 11 11 11 11 11 11 11 11 11 10 10 10 10 10 10 10 10 11 10 10 10 10 10 10 10 10 9 9 9 9 9 8 8 8 7 7
10 11 11 11 11 11 11 11 11 10 10 10 10 10 10 10 10 10 11 11 11 10 10 10 10 10 10 10 10 10 10 9 9 9 8 8 8 7
11 11 12 12 12 12 11 11 11 10 10 10 10 10 10 10 10 11 11 11 11 11 10 10 10 10 10 10 10 10 10 10 9 9 9 8 8 8
11 11 12 12 12 12 11 11 11 10 10 10 10 10 10 11 11 11 11 10 10 11 10 10 10 10 10 10 10 10 10 10 10 9 9 9 8 8

GEFSNE_850_meantemp_030.txt.gz
Temperature
15 15 15 15 14 14 14 13 13 13 13 14 14 15 15 15 16 16 16 16 15 15 15 15 15 15 15 15 15 15 15 15 15 15 15 15 16 16
15 15 15 15 14 14 14 14 13 13 13 13 14 14 14 14 14 15 15 15 15 15 15 15 14 15 15 14 14 14 15 15 15 15 15 15 15 15
15 14 15 15 14 14 14 14 14 13 13 13 13 13 13 13 13 14 14 14 14 14 14 14 14 14 14 14 14 14 14 14 14 14 14 14 15 15
14 14 14 14 14 14 14 14 14 14 13 13 13 13 13 13 13 13 13 13 13 13 13 13 13 13 13 13 13 13 13 13 13 14 14 14 14 14
14 14 14 14 14 14 14 14 14 14 13 13 13 13 13 12 12 12 12 12 12 12 12 12 12 12 12 12 12 12 13 13 13 13 13 13 13 13
13 13 13 14 14 14 14 14 14 14 13 13 13 13 12 12 12 11 11 11 11 11 11 12 12 12 12 12 12 12 12 12 12 12 13 13 13 13
12 13 13 13 13 14 14 14 14 13 13 13 13 12 12 12 11 11 11 11 10 11 11 11 11 11 11 11 11 11 11 11 12 12 12 12 12 12
11 12 13 13 13 14 14 14 14 13 13 13 12 12 12 12 11 11 11 11 10 10 11 10 10 10 10 10 10 10 10 11 11 11 11 11 11 11
11 11 12 13 13 13 14 14 13 13 13 13 13 12 12 12 11 11 11 11 11 10 10 10 10 10 10 10 9 9 9 9 9 9 9 9 9 10
10 11 11 12 13 13 13 13 13 13 12 12 13 13 13 12 12 11 11 11 10 10 10 10 9 9 9 9 8 8 8 8 8 8 8 8 8 8
10 10 11 12 12 12 12 12 12 12 12 12 12 12 12 11 11 11 10 10 9 9 9 10 9 9 8 8 8 8 8 7 7 7 7 7 7 7
9 10 10 11 12 12 12 12 12 12 11 11 11 11 11 11 11 11 11 10 10 9 9 10 9 9 8 8 8 8 7 7 7 7 7 7 7 7
9 9 10 10 11 11 12 12 12 12 11 11 11 11 11 11 11 11 11 11 11 10 10 10 9 9 9 8 8 8 7 7 7 7 7 7 7 7
9 9 10 10 11 11 11 11 11 11 11 11 11 11 11 11 11 11 11 11 11 11 11 10 10 10 9 9 8 8 8 7 7 7 7 7 7 7
8 9 9 10 10 10 11 11 11 11 11 11 10 10 11 11 11 10 11 11 11 11 11 11 11 10 10 10 9 8 8 7 7 7 7 7 7 7
8 8 9 9 9 10 10 10 11 11 11 11 10 10 10 10 10 11 11 11 11 10 10 11 11 10 10 10 9 9 8 8 8 7 7 7 7 7
8 8 8 8 9 9 10 10 10 10 10 10 10 10 10 10 10 10 10 11 11 10 10 10 10 10 10 10 9 9 8 8 8 8 8 8 7 7
8 8 8 8 8 9 9 10 10 10 10 10 10 10 10 10 10 10 10 10 10 10 10 10 10 10 9 9 9 9 9 8 8 8 8 8 8 8
7 7 7 8 8 9 9 10 10 10 10 10 10 10 10 10 10 10 10 10 10 10 10 10 10 10 9 9 9 9 9 9 9 8 8 8 8 8
7 7 7 8 8 9 9 10 10 10 10 10 10 10 10 10 9 9 9 9 9 9 9 9 9 9 10 10 9 9 9 9 9 9 9 9 8 8
7 7 7 8 8 9 10 10 10 10 11 11 10 10 10 10 9 9 9 9 9 9 9 9 9 9 10 10 9 9 9 9 9 9 9 9 9 9
7 7 7 8 8 9 10 10 10 11 10 10 10 10 10 10 9 9 9 9 9 9 10 10 9 9 10 10 10 10 10 10 9 9 9 9 9 9
7 7 8 8 9 10 10 10 11 11 10 10 10 10 10 10 10 10 10 10 10 10 10 10 10 9 9 10 10 10 10 10 10 10 10 10 9 9

GEFSNE_850_meantemp_036.txt.gz
Temperature
15 15 15 15 14 14 14 13 13 13 13 14 14 14 14 15 15 15 16 16 16 16 16 16 16 16 16 16 16 16 16 16 16 16 16 16 16 16
14 14 14 14 14 14 14 13 13 13 13 13 13 13 13 14 14 14 15 15 15 16 15 15 15 15 15 15 15 15 15 15 15 16 16 16 16 16
13 14 14 14 14 14 14 13 13 13 13 13 13 13 13 13 13 13 14 14 14 14 14 15 15 15 15 15 15 15 15 15 15 15 15 15 15 15
12 13 13 13 13 14 14 13 13 13 13 13 13 13 13 13 12 12 12 13 13 13 13 14 14 14 14 14 14 14 14 14 14 14 14 15 15 14
11 12 12 13 13 13 13 13 13 13 13 13 13 13 12 12 12 12 12 12 12 12 13 13 13 13 13 13 13 13 13 14 14 14 14 14 14 14
10 11 11 12 12 13 13 13 13 13 13 13 12 12 12 12 12 12 11 11 12 12 12 12 12 12 12 12 13 13 13 13 13 13 13 13 13 13
10 10 10 11 12 12 13 13 13 13 13 12 12 12 12 12 12 11 11 11 11 11 11 11 11 12 12 12 12 12 12 12 12 12 12 12 12 13
9 9 10 10 11 12 12 13 13 13 13 13 12 12 12 12 12 12 11 11 10 10 11 11 11 11 11 11 11 11 11 11 11 11 11 12 12 12
9 9 9 10 11 11 12 12 12 13 13 13 13 13 12 12 12 12 12 11 11 10 10 10 10 10 10 10 10 10 10 10 10 10 10 10 11 11
9 9 9 10 10 11 11 12 12 13 13 13 13 13 13 13 13 12 12 11 10 10 10 10 9 10 9 9 9 9 9 9 9 9 9 9 9 10
8 9 9 9 10 10 11 11 12 12 12 12 13 12 12 12 12 12 11 11 10 9 9 10 9 9 9 8 8 8 8 8 8 8 8 8 8 8
8 8 8 9 9 10 10 11 11 12 12 12 12 12 12 12 12 12 12 11 10 9 9 10 9 9 7 7 7 7 7 7 7 7 7 7 7 7
8 8 8 9 9 9 10 10 11 11 11 12 12 11 11 11 11 11 11 12 11 11 10 10 9 9 8 7 7 7 7 7 7 6 6 6 6 7
8 8 8 8 9 9 9 10 10 11 11 11 11 11 11 11 11 11 11 11 11 12 11 11 10 10 9 8 7 7 7 6 6 6 6 6 6 7
8 8 8 8 8 9 9 10 10 10 10 11 11 11 11 11 10 10 10 10 10 10 11 11 11 10 10 9 8 8 7 7 7 7 7 7 7 7
7 8 8 8 8 8 9 9 10 10 10 11 11 11 11 10 10 10 10 9 9 9 10 10 10 10 10 9 9 8 8 7 7 7 7 7 7 7
7 7 7 8 8 8 9 9 9 9 10 10 11 10 10 10 10 10 10 9 9 10 9 9 9 9 9 9 9 9 8 8 8 7 7 7 7 7
7 7 7 8 8 8 8 8 9 9 10 10 10 10 10 10 10 9 9 10 10 10 10 9 9 9 9 9 9 9 8 8 8 8 8 8 8 8
7 7 7 7 7 8 8 8 8 9 9 10 10 10 10 10 10 10 10 10 10 10 10 10 10 9 9 9 9 9 9 8 8 8 8 8 8 8
7 7 7 7 7 7 8 8 8 9 9 9 10 10 10 10 10 10 10 10 10 10 10 10 10 10 10 10 9 9 9 8 8 8 8 8 8 8
7 7 7 7 7 7 7 8 8 8 9 9 9 10 10 10 10 10 10 10 10 10 10 10 10 10 10 10 9 9 9 9 9 8 8 8 8 9
6 6 7 7 7 7 7 8 8 8 9 9 9 10 10 10 10 10 10 9 9 10 10 10 10 9 9 9 9 9 9 9 9 9 9 9 9 9
6 6 6 7 7 7 7 8 8 9 9 9 10 10 10 10 9 9 9 9 9 9 9 9 9 9 9 9 9 9 9 9 9 9 9 9 9 9

GEFSNE_850_meantemp_042.txt.gz
Temperature
14 14 14 15 15 15 15 16 17 18 18 16 15 15 15 15 15 15 16 16 17 17 17 17 17 17 17 17 16 16 16 16 16 16 16 16 16 16
13 13 14 14 14 14 15 15 15 16 17 17 15 14 14 14 15 15 15 16 16 16 16 16 16 16 16 16 16 16 16 16 16 16 16 16 16 16
12 12 13 13 14 14 14 14 15 15 16 16 15 14 14 14 14 14 15 15 15 16 16 16 16 16 16 16 16 16 16 16 16 16 16 16 16 16
11 11 12 12 13 13 14 14 14 14 15 15 14 14 13 13 13 14 14 14 15 15 15 15 15 15 15 15 15 15 15 15 15 15 15 15 15 15
10 10 11 11 12 13 13 13 14 14 14 14 14 14 13 13 13 13 13 13 14 14 14 14 14 14 15 15 15 15 14 14 14 14 14 14 14 15
10 10 10 11 11 12 12 13 13 13 13 14 14 14 13 13 12 12 12 12 12 13 13 13 13 14 14 14 14 14 14 14 14 14 14 14 14 14
9 9 10 10 10 11 11 12 12 13 13 13 14 13 13 12 12 12 12 12 12 12 12 12 12 13 13 13 13 13 13 13 13 13 13 13 13 13
9 9 9 9 10 10 10 11 12 12 13 13 13 13 13 13 12 12 12 12 11 11 11 11 11 11 12 12 12 12 12 12 12 13 13 13 13 13
9 9 9 10 9 9 10 10 11 11 12 12 13 13 13 13 12 12 12 12 12 12 11 10 10 10 11 11 12 12 12 12 12 12 12 12 12 12
9 9 9 9 9 9 9 10 10 11 11 12 12 13 13 13 13 13 12 12 11 11 10 10 9 10 10 10 10 11 11 11 11 11 11 11 11 11
9 9 9 9 9 9 9 9 10 10 11 11 11 12 12 12 12 12 11 11 11 10 10 10 9 9 9 9 9 9 10 10 10 10 10 10 10 10
8 9 9 9 9 9 9 9 9 10 11 11 11 11 12 12 12 12 12 11 11 10 9 10 9 9 8 8 8 8 8 8 9 9 9 9 9 8
9 9 9 9 9 9 9 9 9 10 10 11 11 11 11 11 12 12 12 12 12 12 11 10 9 10 9 8 7 7 7 8 8 8 8 8 8 7
8 9 9 9 9 9 9 9 9 9 10 10 10 11 11 11 11 11 11 11 11 12 12 11 10 10 10 9 8 7 7 7 7 7 7 7 8 8
8 8 8 8 8 8 9 9 9 9 9 10 10 11 11 11 11 11 11 11 11 11 11 11 11 10 10 10 9 8 8 7 7 7 7 7 7 7
7 7 8 8 8 8 8 9 9 9 9 10 10 10 11 11 11 11 10 10 10 9 10 10 10 10 10 10 10 9 8 8 8 7 7 7 7 7
7 7 7 8 8 8 8 9 9 9 9 10 10 10 10 11 10 10 10 10 10 9 9 9 9 9 10 10 10 9 9 9 8 8 7 8 8 7
7 7 8 8 8 9 9 9 9 9 9 10 10 10 10 10 10 10 10 9 9 9 9 9 9 9 9 9 10 9 9 9 8 8 8 8 8 8
7 7 8 8 9 9 9 9 9 9 9 9 10 10 10 10 10 9 9 9 9 9 9 9 9 9 10 10 9 9 9 9 9 8 8 9 9 9
7 8 8 8 9 9 9 9 9 9 9 9 9 9 9 9 9 9 9 9 9 9 9 9 9 10 11 11 10 9 9 9 9 9 9 9 9 9
7 8 8 8 9 9 8 9 9 9 9 9 9 9 9 9 9 9 9 9 9 9 9 9 10 10 11 11 11 10 9 9 9 9 10 10 10 9
7 8 8 8 8 8 8 8 8 8 8 8 9 9 9 9 9 9 9 9 9 9 10 10 10 10 11 11 11 11 10 9 9 9 9 10 10 11
7 8 8 8 8 8 8 8 8 8 8 8 8 9 9 9 9 9 9 9 9 10 10 10 10 10 11 11 11 11 10 9 9 9 9 10 10 10

GEFSNE_850_meantemp_048.txt.gz
Temperature
12 13 14 14 15 15 16 17 17 17 17 17 17 17 16 16 16 16 16 17 17 17 17 17 17 17 17 17 17 17 17 16 16 16 16 16 16 16
12 12 13 13 14 15 15 16 16 17 17 17 17 17 16 16 16 16 16 16 16 17 17 17 17 17 17 17 17 17 17 16 16 16 16 16 16 16
11 12 12 13 13 14 15 15 16 16 16 17 16 16 16 16 15 15 15 16 16 16 16 17 17 17 17 17 17 16 16 16 16 16 16 16 16 16
11 11 11 12 12 13 14 14 15 15 16 16 16 16 15 15 15 14 14 15 15 16 16 16 16 16 16 16 16 16 16 16 16 16 16 16 15 15
10 10 11 11 12 12 13 13 14 15 15 15 15 15 15 15 14 13 13 14 14 15 15 15 16 16 16 16 16 16 16 16 16 15 15 15 15 15
10 10 10 11 11 11 12 12 13 14 14 14 14 14 14 14 14 13 13 13 13 14 14 14 15 15 15 15 15 15 15 15 15 15 15 15 15 15
10 10 10 10 11 11 11 12 12 13 13 14 14 14 14 13 13 13 13 12 12 13 13 13 14 14 14 14 15 15 15 15 14 14 14 14 14 14
9 9 10 10 10 10 11 11 12 12 12 13 13 14 14 14 13 13 12 12 11 12 12 12 12 13 13 14 14 14 14 14 14 14 14 14 14 14
9 9 9 10 10 10 11 11 11 11 12 12 13 13 13 14 14 13 13 12 12 12 12 11 11 12 13 13 13 13 13 13 13 13 13 13 13 13
9 9 9 9 10 10 10 10 11 11 11 12 12 13 13 13 14 14 13 12 12 12 11 11 11 12 12 12 12 12 12 13 13 13 13 13 13 13
8 8 9 9 10 10 10 10 10 10 11 11 12 12 12 13 13 13 12 12 11 11 11 11 11 11 11 11 11 12 12 12 12 12 12 12 12 12
8 8 8 9 9 9 10 10 10 10 10 11 11 11 12 12 12 13 13 12 12 11 11 11 11 11 10 10 11 11 11 12 12 12 12 12 12 12
8 8 8 9 9 9 9 9 10 10 10 10 11 11 11 12 12 12 12 13 13 12 12 11 11 11 12 10 10 10 11 11 11 11 11 11 11 11
7 8 8 8 9 9 9 9 9 9 10 10 10 11 11 12 12 12 12 12 13 13 13 13 12 12 12 12 11 10 10 10 10 10 10 10 9 9
7 7 8 8 9 9 9 9 9 9 9 10 10 10 11 12 12 12 12 12 12 12 12 12 12 12 12 12 12 11 10 10 10 10 9 9 9 8
7 7 8 8 8 9 9 9 9 9 9 10 10 10 11 11 11 11 11 11 11 11 11 11 11 11 11 11 12 11 11 10 9 9 9 9 8 8
7 7 7 8 8 8 8 9 9 9 9 10 10 10 10 11 11 11 11 11 11 11 11 10 10 10 11 11 11 10 10 9 9 9 8 8 8 8
7 7 7 8 8 8 9 9 9 9 9 10 10 10 10 10 11 11 11 11 11 11 11 11 10 10 10 10 10 10 10 9 9 9 8 8 8 8
7 7 7 8 8 9 9 9 9 9 10 10 10 10 10 10 10 10 10 10 10 11 11 11 10 10 10 10 10 10 10 9 9 9 9 9 8 9
7 7 8 8 8 9 9 10 10 10 10 10 10 10 10 10 10 10 10 10 10 10 10 10 10 10 10 10 10 10 10 10 9 9 9 9 9 9
7 8 8 8 9 9 9 10 10 10 10 10 10 10 10 10 10 10 10 10 10 10 10 10 10 11 11 10 10 10 10 10 10 10 9 9 9 9
8 8 8 9 9 9 10 10 10 10 10 10 10 10 10 10 10 10 10 10 9 10 10 10 10 10 10 10 10 10 10 10 10 10 10 10 10 10
8 8 9 9 9 9 9 10 10 10 10 10 10 10 10 10 9 9 9 9 9 9 9 9 10 10 10 11 11 10 10 10 10 10 10 10 10 10

GEFSNE_850_meantemp_054.txt.gz
Temperature
11 11 11 12 12 12 12 13 13 13 15 16 16 16 17 17 17 17 17 17 17 16 16 16 16 16 16 16 16 16 16 16 16 16 16 16 16 16
10 10 11 11 11 12 12 12 13 13 14 15 16 16 16 16 16 16 16 16 16 16 16 16 16 16 16 16 16 16 16 16 16 16 16 16 16 16
10 10 10 10 11 11 11 12 12 13 13 14 15 15 16 16 16 16 16 16 16 16 16 16 16 16 16 16 16 16 16 16 16 16 16 16 16 16
9 9 10 10 10 11 11 11 12 12 13 13 14 15 15 15 16 16 16 16 16 16 16 16 16 16 16 16 16 16 16 16 16 16 16 16 16 16
9 9 9 10 10 10 10 11 11 12 12 13 14 14 14 15 15 15 15 15 15 16 16 16 16 16 16 16 16 16 16 16 16 16 16 16 16 16
9 9 9 9 9 10 10 10 11 11 12 12 13 13 14 14 14 14 14 14 15 15 15 15 15 16 16 16 16 16 16 16 16 16 16 16 16 16
8 8 9 9 9 9 9 10 10 11 11 11 12 13 13 13 13 14 13 13 13 13 14 14 15 15 15 15 15 15 15 15 15 15 15 15 15 15
8 8 8 8 9 9 9 9 10 10 11 11 11 12 12 13 13 13 13 13 12 12 13 13 13 14 14 15 15 15 15 15 15 15 15 15 15 15
7 8 8 8 8 9 9 9 9 10 10 10 11 12 12 13 13 13 13 13 13 12 12 12 12 13 13 14 14 14 14 14 15 15 15 15 15 15
7 7 7 8 8 8 9 9 9 10 10 10 11 11 12 12 13 13 13 13 12 12 12 12 12 12 12 12 13 13 13 14 14 14 14 14 14 14
7 7 7 7 8 8 8 8 9 9 10 10 10 11 11 12 12 12 12 12 12 11 11 12 12 11 11 12 12 12 13 13 13 13 14 14 14 14
7 7 7 7 7 8 8 8 8 9 9 10 10 10 11 11 12 12 13 12 12 11 11 11 12 11 11 11 11 12 12 12 12 13 13 13 13 13
6 7 7 7 7 7 8 8 8 9 9 9 10 10 10 11 11 12 12 13 12 12 12 11 12 11 11 11 11 11 12 12 12 12 13 13 13 13
6 6 7 7 7 7 7 8 8 8 9 9 9 10 10 10 11 11 12 12 12 13 13 13 12 12 12 12 11 11 11 11 12 12 12 12 12 12
6 6 7 7 7 7 7 8 8 8 8 9 9 10 10 10 10 11 11 11 11 12 12 12 13 13 13 13 13 12 12 12 11 11 12 12 12 12
6 6 6 7 7 7 7 8 8 8 8 9 9 9 10 10 10 10 11 11 11 11 11 12 12 12 12 13 13 13 13 12 12 11 11 11 11 10
6 6 6 7 7 7 7 8 8 8 8 9 9 9 9 10 10 10 10 11 11 11 11 11 11 11 12 12 12 12 12 12 12 12 11 10 10 10
6 6 6 7 7 7 8 8 8 8 9 9 9 9 9 10 10 10 10 10 11 11 11 11 11 10 10 10 11 12 12 12 11 11 11 10 10 10
6 6 7 7 7 7 8 8 8 8 9 9 9 9 9 9 9 10 10 10 10 11 11 11 11 11 10 10 11 11 11 11 11 10 10 10 10 10
6 6 7 7 7 7 8 8 8 8 8 9 9 9 9 9 9 10 10 10 10 10 10 11 11 11 12 12 12 12 11 11 11 11 10 9 9 9
7 7 7 7 7 8 8 8 8 8 9 9 9 9 9 9 9 10 10 10 10 10 10 10 11 11 11 11 11 11 11 10 11 11 10 9 8 8
7 7 7 7 8 8 8 8 8 9 9 9 9 9 9 9 9 10 10 10 10 10 10 10 10 10 10 10 11 11 11 10 10 10 10 10 10 9
7 7 8 8 8 8 8 8 9 9 9 9 9 9 9 9 9 9 10 10 10 10 10 10 10 9 9 10 10 10 10 10 9 9 9 9 9 9

GEFSNE_850_meantemp_060.txt.gz
Temperature
9 9 10 10 10 10 10 10 10 10 12 13 14 14 14 15 15 15 16 16 16 17 17 17 16 16 16 16 16 16 16 16 16 16 16 16 16 16
9 9 9 9 10 10 10 10 10 10 10 12 13 13 14 14 15 15 15 16 16 16 16 16 16 16 16 16 16 16 16 16 16 16 16 16 16 16
8 9 9 9 9 9 10 10 10 10 10 11 12 13 14 14 14 15 15 15 16 16 16 16 16 16 16 16 16 16 16 16 16 16 16 16 16 16
8 8 8 9 9 9 9 9 10 10 10 10 11 12 13 14 14 15 15 15 16 16 16 16 16 16 16 16 16 16 16 16 16 16 16 16 16 16
8 8 8 8 8 9 9 9 9 10 10 10 11 11 12 13 13 14 14 15 15 15 16 16 16 16 16 16 16 16 16 16 16 16 16 16 16 16
8 8 8 8 8 8 9 9 9 9 9 10 10 11 11 12 13 13 14 14 14 15 15 15 15 15 15 15 15 15 16 16 16 16 16 16 16 16
8 8 8 8 8 8 8 8 9 9 9 9 10 10 11 12 12 13 13 13 13 14 14 14 14 15 15 15 15 15 15 15 15 16 16 16 16 16
8 8 8 8 8 8 8 8 8 8 9 9 10 10 11 11 12 12 12 12 13 13 13 13 13 14 14 14 15 15 15 15 15 15 15 15 15 15
8 8 8 8 8 8 8 8 8 8 8 9 9 10 10 11 11 12 12 12 13 13 13 12 12 12 13 13 14 14 15 15 15 15 15 15 15 15
8 7 7 7 7 7 7 7 8 8 8 8 9 9 10 10 11 11 11 12 12 12 12 12 11 12 12 12 13 14 14 14 14 15 15 15 15 15
7 7 7 7 7 7 7 7 7 8 8 8 9 9 10 10 10 11 11 11 11 11 12 12 11 11 11 11 12 12 13 13 14 14 14 14 14 14
7 7 7 7 7 7 7 7 7 7 8 8 8 9 9 10 10 10 11 11 11 11 11 11 11 11 11 11 11 12 12 12 13 13 14 14 14 14
7 7 7 7 7 7 6 6 7 7 7 8 8 9 9 9 10 10 10 11 11 12 12 11 11 11 11 11 11 11 11 12 12 13 13 13 13 13
6 6 6 6 6 6 6 6 7 6 7 7 8 8 9 9 10 10 10 11 11 12 12 12 12 12 11 11 11 11 11 11 12 12 13 13 13 13
6 6 6 6 6 6 6 6 6 6 6 7 7 8 9 9 9 10 10 10 10 11 11 11 12 12 12 12 12 12 11 11 12 12 12 12 13 13
6 6 6 6 6 6 6 6 6 6 7 7 7 8 8 9 9 9 10 10 10 10 10 11 11 12 12 12 12 12 12 12 12 12 12 12 12 12
6 6 6 6 6 6 6 6 6 6 7 7 7 8 8 8 9 9 9 10 10 10 10 10 10 11 11 12 12 12 12 12 12 12 12 12 12 12
6 6 6 6 6 6 6 6 6 7 7 7 7 7 8 8 9 9 9 9 9 10 10 10 10 10 10 10 11 12 12 12 12 12 12 12 12 12
6 6 6 6 6 6 6 6 7 7 7 7 7 7 8 8 8 9 9 9 9 9 10 10 10 11 10 10 11 11 11 12 12 12 12 12 12 12
6 6 6 6 6 6 6 6 7 7 7 7 7 7 8 8 8 9 9 9 9 9 9 10 10 11 11 11 11 11 11 11 12 12 12 11 11 10
6 6 6 6 6 6 6 6 7 7 7 7 7 8 8 8 8 9 9 9 9 9 9 10 10 10 11 11 11 11 11 11 11 12 12 11 10 10
7 7 6 7 7 7 7 7 7 7 7 7 8 8 8 8 8 9 9 9 9 9 9 10 9 10 10 10 11 11 11 11 10 10 10 11 11 11
7 7 7 7 7 7 7 7 7 8 8 8 8 8 8 8 8 9 9 9 9 9 9 9 9 9 9 10 10 11 11 11 10 10 10 9 10 10

GEFSNE_850_meantemp_066.txt.gz
Temperature
9 10 10 10 10 11 11 11 12 13 13 13 13 13 13 13 14 14 14 15 15 15 16 16 16 16 16 16 16 16 16 16 16 16 16 16 16 16
9 9 9 10 10 10 11 11 11 12 12 13 13 13 13 13 13 14 14 14 15 15 15 16 16 16 16 16 16 16 16 16 16 16 16 16 16 16
9 9 9 9 9 10 10 10 11 11 11 12 12 12 12 12 13 13 14 14 15 15 15 15 16 16 16 16 16 16 16 16 16 16 16 16 16 16
9 9 9 9 9 9 9 10 10 10 11 11 12 12 12 12 12 13 13 14 14 15 15 15 15 16 16 16 16 16 16 16 16 16 16 16 16 16
9 9 9 9 9 9 9 9 10 10 10 11 11 11 11 12 12 13 13 13 14 14 15 15 15 15 16 16 16 16 16 16 16 16 16 16 16 16
8 8 8 8 8 8 9 9 9 10 10 10 11 11 11 12 12 12 13 13 13 14 14 15 15 15 16 16 16 16 16 16 16 16 16 16 16 16
8 8 8 8 8 8 9 9 9 9 10 11 11 11 12 12 12 12 12 13 13 13 14 14 15 15 15 15 16 16 16 16 16 16 16 16 16 16
8 8 8 8 8 8 8 9 9 8 9 10 11 11 11 11 11 12 12 12 13 13 13 14 14 14 15 15 15 15 16 16 16 16 16 16 16 16
8 8 8 9 8 8 8 8 8 8 8 8 9 10 11 11 11 11 11 12 12 13 13 13 13 13 14 14 15 15 15 15 15 15 15 16 16 15
8 8 8 8 8 8 8 8 8 8 8 8 8 9 9 9 10 10 11 11 12 12 12 12 12 13 13 14 14 14 15 15 15 15 15 15 15 15
8 8 8 8 8 7 7 7 8 8 8 8 8 8 9 9 9 10 10 11 11 12 12 12 12 12 12 13 13 13 14 14 14 15 15 15 15 15
8 8 8 7 7 7 7 7 7 8 8 8 8 8 9 9 9 9 10 10 11 11 11 12 12 12 12 12 12 12 13 13 14 14 14 14 14 14
8 8 8 7 7 7 7 7 7 7 7 8 8 8 8 9 9 9 9 10 11 11 11 11 11 11 11 11 11 12 12 12 13 13 13 13 13 13
7 7 7 7 7 7 7 7 7 7 7 7 8 8 9 9 9 10 10 10 10 11 11 11 11 12 12 11 11 11 11 12 12 12 12 12 13 13
7 7 7 7 7 7 7 7 7 6 6 7 8 8 9 9 9 9 9 10 10 10 11 11 11 11 12 12 11 11 11 11 11 12 12 12 12 13
7 7 7 7 7 7 6 6 6 6 7 7 8 8 8 9 9 9 9 10 10 10 10 10 11 11 11 11 11 11 11 11 11 11 12 12 12 12
7 7 7 7 7 7 7 7 7 7 6 7 7 8 8 8 9 9 9 10 9 10 10 10 10 10 11 11 11 11 11 11 11 11 11 11 11 12
7 6 7 7 7 7 7 7 7 7 7 7 7 7 8 8 8 9 9 9 9 10 10 10 10 10 10 10 10 11 11 11 11 11 11 11 11 11
7 7 7 7 7 7 7 7 7 7 7 7 7 7 8 8 8 9 9 9 9 9 9 9 10 9 9 9 10 10 10 11 11 11 11 11 11 11
7 7 7 7 7 7 7 7 7 7 7 7 7 7 8 8 8 8 9 9 9 9 9 9 9 9 10 10 10 10 10 11 11 11 11 10 10 11
7 7 7 7 7 7 7 7 7 7 7 7 7 8 8 8 8 8 9 9 9 9 9 9 9 9 9 10 10 10 10 10 11 11 11 10 10 10
8 8 7 7 7 7 7 7 7 7 7 7 7 8 8 8 8 8 9 9 9 9 9 9 9 9 9 10 10 10 10 10 10 10 10 10 11 10
8 7 7 7 7 7 8 8 7 8 7 8 8 8 8 8 8 9 9 9 9 9 9 9 9 9 9 9 10 9 9 9 9 9 9 9 10 11

GEFSNE_850_meantemp_072.txt.gz
Temperature
11 11 11 11 11 11 12 12 12 12 13 13 14 14 14 14 14 14 14 14 15 15 15 15 16 16 16 16 16 16 16 16 16 16 16 17 17 17
11 11 11 11 11 11 11 11 12 12 12 12 13 13 14 14 14 14 14 14 14 14 15 15 15 15 16 16 16 16 16 16 16 16 16 16 16 17
10 10 11 11 11 11 11 11 11 12 12 12 12 13 13 13 13 13 13 13 14 14 14 15 15 15 15 15 15 16 16 16 16 16 16 16 16 16
10 10 10 10 10 10 10 10 11 11 11 11 12 12 12 12 13 13 13 13 13 14 14 15 15 15 15 15 15 15 15 16 16 16 16 16 16 16
10 10 10 10 10 10 10 10 10 11 11 11 11 11 12 12 12 13 13 13 13 13 14 14 14 15 15 15 15 15 15 15 15 16 16 16 16 16
10 10 10 10 10 10 10 10 10 10 10 10 11 11 11 12 12 13 13 13 13 13 13 14 14 14 14 15 15 15 15 15 15 16 16 16 16 16
10 10 10 10 10 10 10 10 10 10 10 10 10 11 11 12 12 12 12 13 13 13 13 13 14 14 14 14 15 15 15 15 15 15 16 16 16 16
10 10 10 9 10 10 10 10 10 10 10 10 10 10 11 11 11 12 12 12 12 13 13 13 13 14 14 14 15 15 15 15 15 15 15 15 16 16
10 9 9 9 9 10 10 9 10 9 9 9 9 10 10 11 11 11 11 11 11 12 12 12 13 13 14 14 14 15 15 15 15 15 15 15 15 15
10 9 9 9 9 9 9 9 9 9 9 9 9 10 10 10 10 10 10 11 11 11 12 12 12 13 13 13 14 14 15 15 15 15 15 15 15 15
9 9 9 9 9 9 9 9 9 9 9 9 9 9 10 10 10 10 10 10 10 11 11 11 12 12 12 13 13 14 14 14 14 15 15 15 15 15
9 9 9 9 9 9 9 9 9 9 9 9 9 9 9 9 10 9 9 9 10 10 11 11 12 12 12 12 13 13 13 14 14 14 14 15 15 15
9 9 9 9 9 9 8 8 8 8 8 8 8 9 9 9 9 10 10 10 10 10 11 11 11 11 12 12 12 12 13 13 13 14 14 14 14 14
9 9 8 8 8 8 8 8 8 8 8 8 8 8 8 9 9 9 10 10 10 10 11 11 11 11 11 11 12 12 12 12 13 13 13 13 13 14
9 9 8 8 8 8 8 8 8 8 8 7 7 8 8 9 9 9 10 10 10 10 10 10 10 11 11 11 12 12 12 12 12 13 13 13 13 13
8 8 8 8 8 8 8 8 8 8 8 7 7 8 8 9 9 9 9 9 10 10 10 10 10 10 11 11 11 12 12 12 12 12 12 12 12 13
8 8 8 8 8 8 8 8 8 8 8 8 8 8 8 8 9 9 9 9 9 10 10 10 10 10 10 11 11 11 12 12 12 12 12 12 12 12
9 9 8 8 8 8 8 8 8 8 8 8 8 8 8 8 8 9 9 9 9 10 10 10 10 10 10 10 11 11 11 11 12 12 12 12 12 12
9 9 8 8 8 8 8 8 8 8 8 8 8 8 8 8 8 8 9 9 9 9 10 10 10 10 10 10 10 11 11 11 11 11 11 12 12 12
9 9 8 8 8 8 8 8 8 8 8 8 8 8 8 8 8 8 9 9 9 9 9 10 10 10 10 10 10 11 11 11 11 11 11 11 11 11
9 9 9 9 9 9 9 9 9 9 8 8 8 8 8 8 8 8 9 9 9 9 9 9 10 10 10 10 10 10 10 10 11 11 11 11 11 10
9 9 9 9 9 9 9 8 8 9 8 8 8 8 8 8 8 8 9 9 9 9 9 9 10 10 10 10 10 10 10 10 10 10 10 11 11 11
9 9 9 9 9 8 8 8 8 8 9 8 8 8 8 8 8 9 9 9 9 9 9 9 9 9 9 9 10 10 10 10 10 10 10 10 11 11

GEFSNE_850_meantemp_078.txt.gz
Temperature
11 11 11 11 11 11 11 10 10 10 11 12 12 13 13 13 13 13 13 14 14 14 14 14 15 15 15 15 15 15 15 16 16 16 16 16 16 16
11 11 11 11 11 11 11 10 10 10 10 11 11 12 12 12 12 13 13 13 13 13 14 14 14 14 14 15 15 15 15 15 16 16 16 16 16 16
11 11 11 11 11 10 10 10 10 10 10 11 11 11 11 12 12 12 12 13 13 13 13 13 14 14 14 14 14 15 15 15 15 15 16 16 16 16
11 11 11 11 11 10 10 10 10 10 10 10 11 11 11 11 11 12 12 12 12 13 13 13 13 13 14 14 14 14 14 15 15 15 15 16 16 16
11 11 11 10 10 10 10 10 10 10 10 10 10 11 11 11 11 11 12 12 12 12 12 12 13 13 13 14 14 14 14 15 15 15 15 15 15 15
11 10 10 10 10 10 10 10 10 10 10 10 10 10 10 11 11 11 11 11 12 12 12 12 12 13 13 13 13 14 14 14 15 15 15 15 15 15
11 10 10 10 10 10 10 10 9 9 9 9 9 10 10 10 10 10 10 11 11 11 12 12 12 12 13 13 13 13 14 14 14 14 15 15 15 15
11 11 10 10 10 10 10 9 9 9 9 9 9 9 10 10 10 10 10 10 10 11 11 12 12 12 12 13 13 13 13 14 14 14 14 15 15 15
11 10 10 10 10 10 9 9 9 9 9 9 9 9 9 10 10 9 10 10 10 10 10 11 11 12 12 12 13 13 13 13 14 14 14 14 14 15
11 10 10 10 10 9 9 9 9 9 9 9 9 9 9 9 9 9 9 9 10 10 10 10 11 11 12 12 12 13 13 13 13 14 14 14 14 14
11 10 10 10 10 9 9 9 9 9 9 9 9 9 9 9 9 9 9 9 9 10 10 10 10 11 11 12 12 12 13 13 13 13 14 14 14 14
11 11 10 10 10 9 9 9 9 9 9 9 9 9 9 9 9 8 9 8 9 9 10 10 10 10 11 12 12 12 12 13 13 13 13 14 14 14
11 11 10 10 9 9 9 9 9 8 8 8 8 8 9 9 9 9 9 8 8 9 9 9 9 10 10 10 11 12 12 12 12 13 13 13 13 13
11 11 10 10 9 9 9 9 8 8 8 8 8 8 8 9 9 9 9 8 8 9 9 9 9 9 9 9 10 11 11 12 12 12 12 13 13 13
11 11 10 10 9 9 9 9 8 8 8 8 8 8 8 8 8 8 8 8 8 9 9 9 9 9 9 9 10 10 11 11 11 12 12 12 13 13
11 11 10 10 9 9 9 9 8 8 8 8 8 8 8 8 8 8 8 8 8 8 9 9 9 9 9 9 9 10 10 10 11 11 11 12 12 12
11 10 10 10 10 9 9 9 9 8 8 8 8 8 8 8 8 8 8 8 8 8 9 9 9 9 9 9 9 10 10 10 11 11 11 11 12 12
10 10 10 10 9 9 9 9 9 8 8 8 8 8 8 8 8 8 8 8 8 8 8 9 9 9 9 9 9 9 10 10 11 11 11 11 11 12
10 10 10 10 9 9 9 9 9 9 8 8 8 8 8 8 8 8 8 8 8 8 8 9 9 8 8 8 9 10 10 10 10 10 11 11 11 12
10 10 10 10 9 9 9 9 9 9 8 8 8 8 8 8 8 8 8 8 8 8 8 8 8 9 9 9 9 10 10 10 10 10 11 11 11 11
10 10 10 10 9 9 9 9 8 8 8 8 8 8 8 8 8 8 8 8 8 8 8 8 9 9 9 9 9 9 10 10 10 10 10 10 10 11
10 10 10 9 9 9 9 8 8 8 8 8 8 8 8 8 8 8 8 8 8 8 8 8 9 9 8 8 9 9 9 10 10 10 10 10 10 10
10 10 9 9 9 9 8 8 8 8 8 8 8 8 8 8 8 8 8 8 8 8 8 8 8 8 8 9 9 9 9 9 9 9 9 10 10 10

GEFSNE_850_meantemp_084.txt.gz
Temperature
11 11 11 10 10 10 10 10 10 10 10 12 12 12 12 12 12 12 12 13 13 13 13 14 14 14 14 14 14 15 15 15 15 15 15 15 16 16
11 11 11 10 10 10 10 10 10 10 10 11 11 11 11 11 12 12 12 12 12 13 13 13 13 13 14 14 14 14 14 15 15 15 15 15 15 15
11 11 11 11 10 10 10 10 10 10 10 10 11 11 11 11 11 11 12 12 12 12 12 13 13 13 13 13 14 14 14 14 14 15 15 15 15 15
11 11 11 11 10 10 10 10 10 10 10 10 10 11 11 11 11 11 11 11 12 12 12 12 13 13 13 13 13 14 14 14 14 14 15 15 15 15
11 11 11 11 11 10 10 10 10 10 10 10 10 10 10 10 10 11 11 11 11 11 12 12 12 12 12 13 13 13 13 14 14 14 14 14 15 15
11 11 11 11 11 10 10 10 10 10 10 9 10 10 10 10 10 10 10 11 11 11 11 11 12 12 12 12 12 12 13 13 13 14 14 14 14 14
12 11 11 11 11 10 10 10 10 10 9 9 9 9 10 10 10 10 10 10 10 11 11 11 11 11 12 12 12 12 12 12 13 13 13 14 14 14
12 12 11 11 11 10 10 10 10 9 9 9 9 9 10 9 9 9 9 9 10 10 10 11 11 11 11 11 12 12 12 12 12 13 13 13 14 14
12 12 12 11 11 10 10 10 10 9 9 9 9 9 9 9 9 9 9 9 9 9 9 10 11 11 11 11 11 11 12 12 12 12 13 13 13 14
12 12 11 11 11 10 10 10 10 10 9 9 9 9 9 9 9 8 8 8 9 9 9 9 10 11 11 11 11 11 12 12 12 12 12 13 13 13
12 12 12 11 11 11 10 10 10 10 10 9 9 9 9 9 8 8 8 8 8 9 9 9 9 10 10 11 11 11 11 11 12 12 12 13 13 13
12 12 12 12 11 11 10 10 10 10 10 9 9 9 9 9 8 8 8 8 8 8 9 9 9 9 9 10 11 11 11 11 11 12 12 12 12 12
12 12 12 12 11 11 10 10 10 10 9 9 9 9 9 9 9 8 8 8 8 8 8 8 8 8 8 9 10 10 10 11 11 11 11 12 12 12
12 12 12 11 11 11 11 10 10 9 9 9 9 9 9 9 9 8 8 8 8 8 8 8 8 8 8 8 9 10 10 10 10 11 11 11 11 12
12 12 12 11 11 11 10 10 10 9 9 9 9 9 9 9 8 8 8 8 8 8 8 8 8 8 8 8 8 9 9 10 10 10 11 11 11 11
12 12 11 11 11 11 10 10 10 10 9 9 9 9 9 8 8 8 8 8 8 8 8 8 8 8 8 8 8 8 9 9 10 10 10 10 11 11
11 11 11 11 11 11 11 10 10 10 9 9 9 9 9 8 8 8 8 8 8 8 8 8 8 8 8 8 8 8 8 9 9 10 10 10 10 11
11 11 11 11 11 11 10 10 10 10 9 9 9 8 8 8 8 8 8 8 8 8 8 8 8 8 8 8 8 8 8 9 9 9 9 10 10 11
11 11 11 11 11 10 10 10 10 10 9 9 9 8 8 8 8 8 8 8 8 8 8 8 8 7 7 7 8 9 9 9 9 9 9 9 10 11
11 11 11 11 10 10 10 10 10 9 9 9 9 8 8 8 8 8 8 8 8 8 8 8 8 7 7 7 7 8 9 9 9 9 9 9 10 10
10 10 10 10 10 10 10 10 9 9 9 8 8 8 8 8 8 8 7 7 7 7 7 8 8 8 7 7 7 8 8 9 9 9 9 9 9 10
9 9 10 10 10 10 9 9 9 9 8 8 8 8 8 8 7 7 7 7 7 7 8 8 8 7 7 7 7 7 8 8 9 9 9 9 9 9
9 9 9 9 9 9 9 9 8 8 8 8 8 8 8 8 7 7 7 7 7 7 7 7 7 7 7 7 7 7 8 8 8 8 8 9 9 9

GEFSNE_850_meantemp_090.txt.gz
Temperature
12 12 12 12 12 12 12 12 13 14 15 14 13 13 12 12 12 12 12 12 13 13 14 14 14 14 14 14 14 14 14 15 15 15 15 15 15 15
12 12 12 12 12 11 12 12 12 12 13 14 13 13 12 12 12 12 12 12 13 13 13 13 13 14 14 14 14 14 14 14 14 14 15 15 15 15
12 11 11 11 12 12 12 12 12 12 12 13 13 12 11 11 11 11 11 12 12 12 13 13 13 13 13 13 13 14 14 14 14 14 14 14 15 15
12 12 12 12 11 12 11 12 12 11 11 12 12 12 11 11 11 11 11 12 12 12 12 12 13 13 13 13 13 13 13 14 14 14 14 14 14 14
12 12 12 12 12 12 11 12 12 12 11 11 12 12 11 11 11 11 11 11 12 12 12 12 12 12 13 13 13 13 13 13 13 14 14 14 14 14
12 12 12 12 12 12 12 11 11 11 11 11 12 12 12 11 11 11 12 12 11 12 12 12 12 12 12 12 13 13 13 13 13 13 13 14 14 14
13 13 12 12 12 12 12 12 11 11 11 12 12 12 12 12 12 12 12 11 12 11 11 12 12 12 12 12 12 12 12 12 13 13 13 13 13 14
13 13 13 13 13 13 13 12 12 11 11 11 12 12 11 11 11 11 11 11 11 12 11 11 12 12 12 12 12 12 12 12 12 12 12 13 13 13
13 13 13 13 12 12 12 12 12 12 12 11 11 11 11 11 10 10 10 10 10 11 11 11 11 11 11 12 11 11 11 12 12 12 12 12 13 13
13 13 13 13 12 12 12 12 12 11 11 11 11 11 11 10 10 10 10 10 10 10 10 10 11 11 11 11 11 11 11 11 12 12 12 12 12 12
13 13 13 13 13 12 12 12 11 11 11 11 11 11 11 11 10 10 10 10 10 11 11 10 11 11 11 11 11 11 11 11 12 12 12 12 12 12
13 13 13 13 13 12 12 12 11 11 11 11 11 11 11 11 10 10 9 10 10 11 11 10 10 11 11 11 11 11 11 11 11 11 12 12 12 12
13 13 13 13 13 12 12 12 12 11 11 11 11 10 10 10 10 10 10 9 10 10 11 10 10 10 10 11 11 11 11 11 11 11 11 11 11 11
12 12 13 12 12 12 12 12 12 11 11 11 11 11 11 11 11 10 10 9 9 9 10 10 9 9 10 10 10 11 11 11 10 10 11 11 11 11
12 12 12 12 12 11 11 11 11 11 10 11 11 11 11 11 11 10 10 9 9 9 9 9 9 9 9 9 10 10 11 11 11 10 10 10 11 11
11 11 11 11 11 11 11 11 11 11 11 11 11 11 11 11 10 10 10 10 9 9 9 9 9 9 9 9 9 10 10 10 10 10 10 10 10 11
10 10 10 11 11 11 11 11 11 11 10 10 11 11 11 11 10 10 10 10 9 10 10 10 9 9 9 9 9 9 10 10 10 10 10 10 10 10
10 10 10 11 11 11 11 11 11 11 10 10 10 10 10 10 10 10 10 9 9 9 10 10 9 9 9 8 9 9 9 9 10 10 10 10 10 10
9 9 10 10 10 10 10 11 11 11 11 10 10 10 10 10 10 10 10 9 9 9 9 9 9 9 9 9 10 9 9 9 10 10 10 10 10 10
9 9 10 10 10 10 10 10 10 10 10 10 10 9 9 9 9 9 9 9 9 9 9 9 9 9 9 9 10 10 10 9 9 9 10 10 10 10
9 9 9 9 9 9 9 9 9 9 9 9 9 9 9 9 9 9 9 9 8 8 8 9 9 9 8 8 8 9 10 9 9 9 9 9 10 10
8 8 8 8 8 8 9 9 9 9 9 9 9 9 9 9 9 9 9 8 8 8 8 9 9 8 8 8 8 9 9 9 9 9 9 9 9 10
8 7 7 8 8 8 8 8 8 8 8 8 8 8 8 8 8 8 8 8 8 8 8 8 8 8 8 8 8 8 9 9 9 9 9 9 9 9

GEFSNE_850_meantemp_096.txt.gz
Temperature
14 14 14 14 14 14 14 14 14 14 15 15 15 15 14 14 14 14 14 13 13 14 14 14 14 14 14 14 14 14 15 15 14 14 15 15 15 15
14 14 14 14 14 13 13 14 14 14 14 14 14 14 14 14 14 13 13 13 13 13 13 14 14 14 14 14 14 14 14 14 14 14 14 14 14 14
13 13 14 14 14 13 13 13 13 14 14 14 14 14 14 14 13 13 13 13 13 13 13 13 13 14 14 14 14 14 14 14 14 14 14 14 14 14
14 14 14 14 14 14 14 14 14 13 13 14 14 14 14 13 13 13 13 13 13 13 13 13 13 13 13 14 14 14 14 14 14 14 14 14 14 14
14 14 14 14 14 14 14 14 14 13 13 13 13 13 13 13 13 13 13 13 13 13 13 13 13 13 13 13 13 13 13 13 13 13 14 14 14 14
14 14 14 14 14 14 14 14 14 13 13 13 13 13 13 13 13 13 13 13 13 13 13 13 13 13 13 13 13 13 13 13 13 13 13 13 13 13
15 14 14 14 14 14 14 14 13 13 13 13 13 13 13 13 13 13 13 13 13 13 13 13 13 13 13 13 13 13 13 13 13 13 13 13 13 13
15 15 15 14 14 14 14 14 14 13 13 13 13 13 13 13 13 13 12 12 12 13 13 13 13 13 13 13 13 13 13 13 13 13 13 13 13 13
15 15 15 14 14 14 14 14 14 14 13 13 13 13 13 13 13 12 12 12 12 12 12 12 12 12 12 12 12 13 13 12 12 12 12 12 12 13
15 15 15 15 14 14 13 13 13 13 13 13 13 13 13 13 13 12 12 12 12 12 12 12 12 12 12 12 12 12 12 12 12 12 12 12 12 12
15 15 15 14 14 14 13 13 13 13 13 13 13 13 13 13 12 12 12 11 11 12 12 12 12 12 12 12 12 12 12 12 12 12 12 12 12 12
14 14 14 14 14 14 13 13 13 13 13 13 12 12 12 12 12 12 12 11 11 11 12 12 12 12 12 12 12 12 12 12 12 12 12 12 12 11
13 13 13 14 14 13 13 13 13 13 13 12 12 12 12 12 12 12 12 12 11 11 12 12 12 12 12 11 12 12 12 12 12 12 12 12 11 11
13 13 13 13 13 13 13 13 13 12 12 12 11 11 12 12 12 12 12 12 12 12 12 12 11 11 11 11 11 11 11 11 12 12 12 11 11 11
12 12 12 12 12 12 12 12 12 12 12 11 11 11 11 12 12 12 12 12 12 11 11 11 11 11 11 10 10 11 11 11 11 11 11 11 11 11
11 11 11 12 12 12 12 12 12 12 11 11 11 11 11 11 11 12 12 12 12 11 11 11 11 11 11 11 10 10 10 10 11 11 11 11 11 11
11 11 11 11 10 11 11 11 11 11 11 11 11 11 11 11 11 11 11 12 11 11 11 11 11 11 11 11 10 10 10 10 10 10 10 11 11 11
10 10 10 9 9 10 10 10 11 11 11 11 11 11 11 11 11 11 11 11 11 11 11 11 11 11 10 10 10 10 10 10 10 10 10 10 10 11
10 10 9 9 9 9 10 10 10 10 11 11 11 11 11 10 10 10 10 10 10 10 11 11 11 10 10 10 10 10 10 10 10 10 10 10 10 10
9 9 9 9 9 9 9 9 10 10 10 10 10 10 10 10 10 10 10 10 10 10 10 10 10 10 10 10 10 10 10 10 10 10 10 10 10 10
9 9 9 9 9 9 9 9 9 9 9 9 9 9 9 9 9 9 9 9 10 9 9 9 10 10 10 10 9 10 10 10 10 10 10 10 10 10
8 8 8 8 8 8 8 8 8 8 8 8 8 8 9 9 9 9 9 9 9 9 9 9 9 9 9 9 9 9 9 10 10 10 10 10 10 10
7 7 7 7 7 7 7 7 7 7 7 7 8 8 8 8 8 8 8 8 8 9 9 9 9 9 9 9 9 9 9 9 9 10 10 10 10 10

GEFSNE_850_meantemp_102.txt.gz
Temperature
14 14 14 14 14 14 14 14 14 14 14 14 14 14 14 14 14 14 14 14 14 14 14 14 14 14 14 14 14 14 14 14 14 14 14 14 14 14
14 14 14 14 14 14 14 14 14 14 14 14 14 14 14 14 14 14 13 13 13 13 13 13 13 13 13 14 14 14 14 14 14 14 14 14 14 14
14 14 14 14 14 14 14 14 14 14 14 14 14 14 14 14 14 14 13 13 13 13 13 13 13 13 13 13 13 13 14 14 14 14 14 14 14 14
14 14 14 14 14 14 14 14 14 13 13 14 14 14 14 14 14 14 14 13 13 13 13 13 13 13 13 13 13 13 13 13 13 13 13 14 14 14
15 14 14 14 14 14 14 14 14 14 13 14 14 14 14 14 14 14 14 13 13 13 13 13 13 13 13 13 13 13 13 13 13 13 13 13 13 13
15 15 15 14 14 14 14 14 14 14 14 14 14 14 14 14 13 14 14 14 13 13 13 13 13 13 13 13 13 13 13 13 13 13 13 13 13 13
15 15 15 15 15 14 14 14 14 14 14 13 14 14 14 14 14 13 13 13 13 13 13 13 13 13 13 13 13 13 13 13 13 13 12 12 13 13
15 15 15 15 14 14 14 14 14 14 14 13 13 13 14 14 14 13 13 13 13 13 13 13 13 13 13 13 13 13 13 13 13 12 12 12 12 12
15 15 15 15 14 14 14 14 14 13 13 13 13 13 13 14 13 13 13 13 13 13 12 13 13 13 13 13 13 13 13 13 12 12 12 12 12 12
14 14 14 14 14 14 14 14 14 14 13 13 13 13 13 13 13 12 12 12 12 13 12 12 13 13 13 13 13 13 13 12 12 12 12 12 12 12
14 14 14 14 14 14 13 13 13 14 13 13 13 13 13 13 12 12 12 12 12 13 13 12 12 13 13 13 13 13 12 12 12 12 12 12 12 12
14 14 13 13 13 13 13 13 13 13 13 13 13 13 13 13 12 12 12 11 11 12 12 12 12 12 12 13 13 13 12 12 12 12 12 12 12 12
13 13 13 13 13 12 12 12 12 12 12 12 12 12 12 12 12 12 12 11 11 11 12 11 11 11 11 11 12 12 12 12 12 12 12 12 12 12
13 13 12 12 12 12 12 12 12 11 11 11 11 11 12 12 12 12 11 11 11 11 11 11 11 11 11 11 11 11 12 12 12 12 12 12 12 12
12 12 12 11 11 11 11 11 11 11 11 11 10 11 11 11 11 11 11 11 11 11 11 11 10 11 11 11 11 11 11 11 11 11 11 12 12 11
11 11 11 11 11 11 10 10 10 10 10 10 10 10 10 10 10 10 10 10 10 10 11 10 10 10 10 10 10 10 11 11 11 11 11 11 11 11
11 10 10 10 10 10 10 10 9 9 9 9 9 9 9 9 9 9 9 10 9 10 10 10 10 10 10 10 10 10 10 10 11 11 11 11 11 11
10 10 10 9 9 9 9 9 9 9 9 9 9 9 9 9 9 9 9 9 9 9 9 10 10 10 10 10 10 10 10 10 10 10 10 10 10 11
9 9 9 8 8 8 8 8 8 8 8 8 8 8 8 8 8 8 8 8 8 9 9 9 9 9 9 9 10 10 10 10 10 10 10 10 10 11
8 8 8 8 8 7 7 7 7 7 7 8 7 7 7 8 8 7 8 8 8 8 8 8 9 9 8 9 9 9 10 9 9 10 10 10 10 10
7 7 7 7 7 7 7 7 7 7 7 7 7 7 7 7 7 7 7 7 7 7 8 8 8 8 8 8 8 9 9 9 9 9 9 9 9 9
6 6 6 6 6 6 6 6 6 6 6 6 6 6 6 6 6 6 6 6 7 7 7 7 8 8 8 8 8 8 8 9 9 9 9 9 9 9
5 5 5 5 5 5 5 5 5 5 5 5 5 5 5 5 5 5 5 6 6 6 7 7 7 7 7 7 7 8 8 8 8 9 9 9 9 9

GEFSNE_850_meantemp_108.txt.gz
Temperature
14 14 14 14 14 14 14 14 14 14 14 15 14 14 14 14 14 14 14 13 13 13 13 13 13 13 13 13 13 13 14 14 14 14 14 14 14 14
14 14 14 14 14 14 14 14 14 14 14 14 14 14 14 14 14 14 13 13 13 13 13 13 13 13 13 13 13 13 13 13 14 14 14 14 14 14
14 14 14 14 14 14 14 14 14 14 14 14 14 14 14 14 14 14 13 13 13 13 13 13 13 13 13 13 13 13 13 13 13 13 13 13 14 14
14 14 14 14 14 14 13 13 13 13 13 14 14 14 14 14 14 14 14 14 13 13 13 13 13 13 13 13 13 13 13 13 13 13 13 13 13 13
14 14 14 14 14 14 13 13 13 13 13 13 14 14 14 14 14 14 14 14 14 14 14 13 13 13 13 13 13 13 13 13 13 13 13 13 13 13
14 14 14 14 14 14 14 13 13 13 13 13 14 14 14 14 14 14 14 14 14 14 14 14 14 14 13 13 13 13 13 13 13 13 13 13 13 13
14 14 14 14 14 14 14 14 13 13 13 13 14 14 14 14 14 14 14 14 14 14 14 14 14 14 14 13 13 13 13 13 13 13 13 13 12 12
14 14 14 14 14 14 14 14 13 13 13 13 13 13 14 14 13 13 13 13 13 14 14 14 14 14 14 13 13 13 13 13 13 13 13 13 12 12
14 14 14 14 14 14 14 13 13 13 13 13 13 13 13 13 13 13 13 13 13 13 13 13 14 13 14 13 13 13 13 13 13 13 13 13 13 12
14 14 14 14 14 13 13 13 13 13 13 13 13 13 13 13 12 12 12 12 12 13 12 12 13 13 13 13 13 13 13 13 13 13 13 13 13 12
13 13 13 13 13 13 13 13 13 13 13 12 12 12 12 12 12 12 12 12 12 12 12 12 12 12 12 13 13 13 13 13 12 12 12 12 12 12
13 13 13 13 13 12 12 12 12 13 12 12 12 12 12 12 11 11 11 11 11 11 12 11 11 11 11 12 12 12 12 12 12 12 12 12 12 12
12 12 12 12 12 12 11 11 12 11 11 11 11 11 11 11 11 11 11 10 10 10 11 10 10 10 10 10 11 11 11 12 12 12 12 12 12 12
12 12 12 11 11 11 11 11 11 11 11 10 11 11 11 11 11 11 10 10 10 10 10 10 10 10 9 9 9 10 11 11 11 11 11 11 11 11
11 11 11 11 11 10 10 10 10 10 10 10 10 10 10 10 10 10 10 10 10 10 10 10 9 9 9 9 9 9 10 10 11 11 11 11 11 11
11 10 10 10 10 10 10 10 9 9 9 9 9 9 9 9 9 9 9 9 9 9 10 9 9 9 9 9 8 9 9 9 10 10 10 10 10 11
10 10 10 9 9 9 9 9 9 9 8 8 8 8 8 8 8 8 8 8 8 8 9 9 9 9 8 8 8 8 8 9 9 10 10 10 10 10
9 9 9 9 9 8 8 8 8 8 8 8 8 8 7 7 7 7 7 7 7 7 7 8 8 8 8 8 8 8 8 8 9 9 9 9 9 10
8 8 8 8 7 7 7 7 7 7 7 7 7 7 6 6 6 6 6 6 6 6 7 7 7 7 6 6 7 8 8 8 8 8 8 8 8 9
7 7 7 6 6 6 6 6 6 6 6 6 6 6 6 6 5 5 5 5 5 6 6 6 6 6 6 6 6 7 7 7 7 7 8 8 8 8
6 6 6 6 5 5 5 5 5 5 5 5 5 5 5 5 5 5 5 5 5 5 5 5 5 5 5 5 6 6 7 7 7 7 7 7 7 8
5 5 5 5 5 4 4 4 4 4 5 4 4 4 4 4 4 4 4 4 4 4 4 5 5 5 5 5 5 5 6 6 7 7 7 7 7 7
4 4 4 4 4 4 4 4 4 4 4 4 4 4 4 4 4 4 3 4 4 4 4 4 4 4 5 5 5 5 5 6 6 6 7 7 7 7

GEFSNE_850_meantemp_114.txt.gz
Temperature
14 14 15 15 15 15 15 16 16 17 17 16 16 15 15 14 14 14 14 14 14 14 14 14 14 14 14 14 14 14 14 14 14 14 14 14 14 14
14 14 14 15 15 15 15 15 15 16 17 17 16 15 15 15 14 14 14 14 14 14 14 14 14 14 14 14 14 14 14 14 14 14 14 14 14 14
14 14 14 14 14 15 15 15 15 15 16 16 16 15 14 14 14 14 14 14 14 14 14 14 14 14 14 14 14 14 14 14 14 14 14 14 14 14
14 14 14 14 14 14 14 14 15 15 15 15 15 15 14 14 14 14 14 14 14 14 14 14 14 14 14 14 14 14 14 14 14 14 14 14 14 14
14 14 14 14 14 14 14 14 14 14 14 14 15 15 14 14 14 14 14 14 14 14 14 15 15 15 15 14 14 14 14 14 14 14 14 14 14 13
14 14 14 14 14 14 14 14 14 14 14 14 14 15 14 14 14 14 14 14 14 15 14 14 14 14 15 15 14 14 14 14 14 14 14 14 14 13
14 14 14 14 14 14 14 14 13 13 14 14 14 14 14 14 14 14 14 14 14 14 14 14 14 14 14 14 14 14 14 14 14 14 14 14 14 14
14 14 14 14 14 14 14 14 13 13 13 14 14 14 14 14 14 14 14 14 14 15 14 14 14 14 14 14 14 14 14 14 14 14 14 14 14 14
14 14 14 14 14 13 14 14 13 13 13 13 13 13 13 13 13 13 13 13 13 14 13 13 14 14 14 14 13 13 13 14 14 14 14 14 14 13
14 13 13 13 13 13 13 13 13 13 13 13 13 13 12 12 12 12 12 12 12 12 12 12 13 13 13 13 13 13 13 13 13 13 13 13 13 13
13 13 13 13 13 13 12 12 12 12 12 12 12 12 12 12 12 12 12 12 12 13 13 12 13 13 13 13 13 13 13 13 13 13 13 13 13 13
13 12 12 12 12 12 12 12 12 12 12 11 11 12 12 12 11 11 11 11 12 12 13 12 12 12 12 13 13 12 12 12 12 12 12 12 12 12
12 12 12 12 12 12 11 11 11 11 11 11 11 11 11 11 11 11 11 10 11 11 11 11 11 11 11 12 12 12 12 12 12 11 11 11 11 11
12 11 11 11 11 11 11 11 11 11 10 10 11 11 11 11 10 10 10 10 10 10 10 10 10 10 10 10 11 11 11 11 11 11 11 11 11 11
11 11 11 11 10 10 10 10 10 10 10 10 10 10 10 10 10 9 9 9 9 9 9 9 9 9 9 9 10 10 10 10 10 10 11 11 11 11
10 10 10 10 10 9 9 9 9 9 9 9 9 9 9 9 9 9 9 9 9 9 9 9 9 8 8 8 9 9 9 10 10 10 10 10 10 10
9 9 9 9 9 9 9 9 9 9 9 8 8 8 8 8 8 8 8 8 8 8 8 8 8 8 8 8 8 8 9 9 9 9 9 9 10 10
9 9 9 9 9 9 8 8 8 8 7 7 7 7 7 7 7 7 7 7 7 7 7 7 7 7 7 8 8 8 8 8 8 9 8 9 9 9
8 8 8 8 7 7 7 7 7 7 6 6 6 6 6 6 6 6 6 6 6 6 7 7 7 7 7 7 8 8 8 8 8 8 8 8 8 9
7 7 7 7 6 6 6 6 6 6 6 5 5 5 5 5 5 5 6 6 6 6 6 6 6 6 6 6 6 7 7 7 7 7 7 8 8 8
6 6 6 6 5 5 5 5 5 5 5 4 5 5 5 5 5 5 5 5 5 5 5 5 5 5 5 5 5 6 7 7 6 6 7 7 7 7
5 5 5 5 4 4 4 4 4 4 4 4 4 4 4 4 4 4 4 4 4 4 4 5 5 5 5 5 5 5 6 6 6 6 6 6 6 7
4 4 4 4 4 3 3 3 3 3 3 3 3 3 3 3 3 3 3 3 3 3 4 4 4 4 4 4 5 5 5 6 6 6 6 7 7 7

GEFSNE_850_meantemp_120.txt.gz
Temperature
16 16 16 17 17 17 17 17 17 17 17 17 17 17 17 16 16 16 16 15 15 15 15 15 15 15 15 15 15 15 15 15 15 15 15 15 14 14
16 16 16 16 16 16 17 17 17 17 17 17 17 17 17 16 16 16 16 15 15 15 15 15 15 15 15 15 15 15 15 15 15 15 15 14 14 14
16 16 16 16 16 16 16 16 16 16 17 17 17 17 17 16 16 16 15 15 15 15 15 15 15 15 15 15 15 15 15 15 15 15 15 14 14 14
16 16 15 16 16 16 16 16 16 16 16 16 16 16 16 16 16 16 16 15 15 15 15 15 15 15 15 15 15 15 15 15 15 15 15 15 14 14
16 15 15 15 15 15 15 16 16 16 16 16 16 16 16 16 15 15 15 15 15 15 15 15 15 15 15 15 15 15 15 15 15 15 15 15 14 14
15 15 15 15 15 15 15 15 15 15 15 15 15 15 16 15 15 15 15 15 15 15 15 15 15 15 15 15 15 15 15 15 15 15 15 15 14 14
16 15 15 15 15 15 15 15 15 15 15 15 15 15 15 15 15 15 15 15 15 15 15 15 15 15 15 15 15 15 15 15 15 14 14 14 14 14
15 15 15 15 15 15 15 15 14 14 14 14 14 14 15 15 15 15 14 14 14 15 14 15 15 14 15 14 14 15 15 14 14 14 14 14 14 14
15 15 15 15 15 14 14 14 14 14 14 14 14 14 14 14 14 14 14 14 14 14 14 14 14 14 14 14 14 14 14 14 14 14 14 14 14 14
15 14 14 14 14 14 14 14 14 14 14 13 13 14 13 13 13 13 13 13 13 14 13 13 14 14 14 14 14 14 14 14 14 14 13 13 13 13
14 14 14 14 14 14 13 13 13 13 13 13 13 13 13 13 13 13 12 12 12 13 13 13 13 13 13 13 13 13 13 13 13 13 13 13 13 13
14 13 13 13 13 13 13 13 13 13 12 12 12 12 12 12 12 12 12 12 11 11 12 12 12 12 12 12 12 12 13 13 13 12 12 12 12 12
13 13 13 13 12 12 12 12 12 12 12 12 12 12 12 12 12 12 12 11 11 11 11 11 11 11 11 11 11 11 11 12 12 12 12 12 12 11
12 12 12 12 12 12 11 11 11 11 11 11 11 11 11 11 11 11 11 11 11 10 11 10 10 10 10 10 10 10 11 11 11 11 11 11 11 11
11 11 11 11 11 11 11 11 10 10 10 10 10 10 10 10 10 10 10 10 10 10 10 10 10 10 9 9 9 9 10 10 10 10 10 10 10 10
11 11 11 10 10 10 10 10 10 10 9 9 9 9 9 9 9 9 9 9 9 9 9 9 9 9 9 9 9 9 9 9 9 9 9 9 10 10
10 10 10 10 9 9 9 9 9 9 9 9 8 8 8 8 8 8 8 8 8 8 8 9 8 8 8 8 8 8 8 8 8 8 9 9 9 9
9 9 9 9 9 8 8 8 8 8 8 7 7 7 7 7 7 7 7 7 7 7 7 7 7 7 8 8 8 8 8 8 8 8 8 8 8 9
9 8 8 8 7 7 7 7 7 7 7 6 6 6 6 6 6 6 6 6 6 6 6 6 6 6 6 6 7 7 7 7 7 7 7 7 7 8
7 7 7 7 7 6 6 6 6 6 6 6 6 5 5 5 5 5 5 5 5 5 5 5 5 5 5 5 6 6 7 7 7 7 7 7 7 7
6 6 6 6 6 5 5 5 5 5 5 5 5 5 5 5 4 4 4 4 4 4 4 5 5 5 5 5 5 6 6 6 6 6 6 6 6 6
6 5 5 5 5 5 4 4 4 4 4 4 4 4 4 3 3 3 3 3 3 3 4 4 4 4 4 4 4 5 5 5 6 6 6 6 6 6
4 4 4 4 4 3 3 3 3 3 3 3 3 3 3 3 3 2 3 3 3 3 3 3 3 3 4 4 4 4 4 4 5 5 5 6 6 6

GEFSNE_850_meantemp_126.txt.gz
Temperature
16 16 16 16 17 17 17 17 17 17 17 17 17 17 16 16 16 16 16 16 16 15 15 15 15 15 15 15 15 15 14 14 14 14 14 14 14 14
16 16 16 16 16 16 16 16 16 16 16 17 17 16 16 16 16 16 16 16 16 15 15 15 15 15 15 15 15 15 15 14 14 14 14 14 14 14
16 16 16 16 16 16 16 16 16 16 16 16 16 16 16 16 16 16 16 16 15 15 15 15 15 15 15 15 15 15 15 14 14 14 14 14 14 14
16 16 16 16 16 16 16 16 16 16 16 16 16 16 16 16 16 16 15 15 15 15 15 15 15 15 15 15 15 15 14 14 14 14 14 14 14 14
16 16 16 16 16 16 15 15 15 15 15 15 16 16 16 15 15 15 15 15 15 15 15 15 15 15 15 15 15 14 14 14 14 14 14 14 14 14
16 16 16 15 15 15 15 15 15 15 15 15 15 15 15 15 15 15 15 15 15 15 15 15 15 15 14 14 14 14 14 14 14 14 14 14 14 14
16 15 15 15 15 15 15 15 15 15 15 15 15 15 15 15 15 14 14 14 15 15 15 15 14 14 14 14 14 14 14 14 14 14 14 14 14 14
15 15 15 15 15 15 15 14 14 14 14 14 14 14 14 14 14 14 14 14 14 14 14 14 14 14 14 14 14 14 14 13 13 13 13 13 13 13
15 15 15 15 14 14 14 14 14 14 14 14 13 13 13 13 13 13 13 13 13 13 13 13 13 13 13 13 13 13 13 13 13 13 13 13 13 13
15 15 14 14 14 14 14 13 13 13 13 13 13 13 13 13 12 12 12 12 12 12 12 12 13 13 13 13 13 13 13 13 13 13 13 13 13 13
14 14 14 14 14 13 13 13 13 13 12 12 12 12 12 12 12 12 12 11 12 12 12 12 12 12 12 12 12 12 12 12 12 12 12 12 12 12
14 13 13 13 13 13 12 12 12 12 12 12 11 11 11 11 11 11 11 11 11 11 11 11 11 11 11 11 11 11 11 11 11 11 11 11 11 11
13 13 12 12 12 12 12 12 11 11 11 11 11 11 11 11 11 10 10 10 10 10 10 10 10 10 9 10 10 11 11 11 11 11 10 10 10 10
12 12 12 11 11 11 11 11 10 10 10 10 10 10 10 10 10 10 10 9 9 9 9 9 9 9 9 9 9 9 10 10 10 10 10 10 10 10
11 11 11 10 10 10 10 10 10 10 9 9 9 9 9 9 9 9 9 9 9 9 8 8 8 8 8 8 8 8 8 9 9 9 9 9 9 9
10 10 10 10 9 9 9 9 9 8 8 8 8 8 8 8 8 8 8 8 8 8 8 8 7 7 7 7 7 7 7 8 8 8 8 8 8 8
9 9 9 9 9 8 8 8 8 8 7 7 7 7 7 7 7 7 7 7 7 7 7 7 7 7 7 7 7 7 7 7 7 7 7 7 8 8
9 8 8 8 7 7 7 7 7 7 6 6 6 6 6 6 6 6 6 6 6 6 6 5 5 6 6 6 6 6 6 6 6 6 6 6 7 7
8 7 7 7 6 6 6 6 6 5 5 5 5 5 5 5 5 5 5 5 5 4 4 4 4 4 4 4 5 5 5 5 5 5 6 6 6 6
7 6 6 5 5 5 5 5 4 4 4 4 4 4 4 4 4 4 4 4 4 4 4 4 4 3 3 3 3 4 5 4 4 5 5 5 5 6
5 5 5 5 4 4 4 4 4 3 3 3 3 3 3 3 3 3 3 3 3 3 3 3 3 3 3 3 3 4 4 4 4 4 4 4 5 5
4 4 4 4 3 3 3 3 3 3 3 2 2 2 2 2 2 2 2 2 2 2 2 2 2 2 3 2 3 3 3 4 4 4 4 4 3 4
4 3 3 3 3 3 2 2 2 2 2 2 2 2 2 2 2 2 2 2 2 2 2 2 2 2 2 2 2 2 2 3 3 3 4 4 4 4

GEFSNE_850_meantemp_132.txt.gz
Temperature
16 16 16 16 16 16 16 16 16 16 16 17 16 16 16 16 16 16 16 15 15 15 15 15 15 15 14 14 14 14 14 14 14 14 14 14 14 14
16 15 15 16 16 16 16 16 16 16 16 16 16 16 16 16 16 16 16 16 15 15 15 15 15 15 14 14 14 14 14 14 14 14 14 14 14 14
15 15 15 15 15 15 15 16 16 16 16 16 16 16 16 16 16 16 16 16 15 15 15 15 15 15 14 14 14 14 14 14 14 14 14 14 14 14
15 15 15 15 15 15 15 15 15 15 15 15 15 15 15 15 15 15 15 15 15 15 15 15 15 15 15 14 14 14 14 14 14 14 14 14 14 14
15 15 15 15 15 15 15 15 15 15 15 15 15 15 15 15 15 15 15 15 15 15 15 15 15 14 14 14 14 14 14 14 14 14 14 14 14 14
15 15 15 15 15 15 15 15 15 15 14 14 14 15 15 15 15 15 15 15 15 14 14 14 14 14 14 14 14 14 14 14 14 14 14 14 14 13
15 15 15 15 15 15 14 14 14 14 14 14 14 14 14 14 14 14 14 14 14 14 14 14 14 14 14 14 14 13 13 13 13 13 13 13 13 13
15 15 15 14 14 14 14 14 14 14 14 13 13 13 13 13 13 13 13 13 13 13 13 13 13 13 13 13 13 13 13 13 13 13 13 13 13 13
15 15 14 14 14 14 14 14 13 13 13 13 13 13 13 13 13 13 12 12 12 12 12 13 13 12 12 12 12 12 12 12 12 12 12 12 12 12
14 14 14 14 14 13 13 13 13 13 13 12 12 12 12 12 12 12 11 11 11 11 11 11 12 12 12 12 12 11 11 11 11 11 11 11 11 12
14 13 13 13 13 13 13 13 12 12 12 12 11 11 11 11 11 11 11 11 11 11 11 10 11 11 11 11 11 11 11 11 11 10 10 11 11 11
13 13 12 12 12 12 12 12 12 11 11 11 11 11 11 10 10 10 10 10 10 10 10 9 9 9 9 10 10 10 10 10 10 10 10 10 10 10
12 12 12 12 12 11 11 11 11 11 11 10 10 10 10 10 9 9 9 9 9 9 8 8 8 8 8 8 9 9 9 9 9 9 9 9 9 9
11 11 11 11 11 11 10 10 10 10 10 9 9 9 9 9 9 8 8 8 8 8 8 8 7 7 7 7 7 8 8 8 8 8 8 8 8 8
11 10 10 10 10 9 9 9 9 9 9 9 8 8 8 8 7 7 7 7 7 7 7 7 7 7 6 6 6 7 7 7 7 7 7 7 7 8
9 9 9 9 8 8 8 8 8 8 7 7 7 7 6 6 7 7 7 7 7 7 6 6 6 6 6 6 6 6 6 6 6 6 6 7 7 7
8 8 8 8 8 7 7 7 7 6 6 6 6 6 6 6 6 6 6 6 6 5 6 6 5 5 5 5 5 5 5 5 5 5 5 6 6 6
8 8 7 7 7 6 6 6 5 5 5 5 5 5 5 5 5 5 4 4 4 4 4 4 4 5 5 5 4 4 4 4 4 4 4 5 5 5
7 7 6 6 5 5 5 4 4 4 4 4 4 4 4 4 4 4 3 3 3 3 3 3 3 3 3 3 3 3 3 3 3 3 4 4 4 4
6 5 5 4 4 4 4 3 3 3 3 3 3 3 3 3 3 2 2 2 2 2 2 3 2 2 2 2 2 3 3 3 3 3 3 3 3 4
4 4 4 3 3 3 3 3 3 2 2 2 2 2 2 2 2 2 2 1 1 2 2 2 2 2 2 2 2 2 2 2 2 2 2 2 2 3
3 3 3 3 3 2 2 2 2 2 2 2 2 1 1 1 1 1 1 1 1 1 1 1 1 1 1 1 1 1 2 2 2 2 2 2 2 2
3 3 2 2 2 2 2 2 1 1 1 1 1 1 1 1 1 0 0 0 0 0 0 1 1 1 1 1 1 1 1 1 1 2 2 2 2 2

GEFSNE_850_meantemp_138.txt.gz
Temperature
16 16 16 16 16 17 17 17 18 18 19 18 17 17 16 16 16 16 16 16 16 16 16 16 15 15 15 15 15 15 15 15 15 15 14 14 14 14
16 16 16 16 16 16 16 17 17 17 18 18 17 17 16 16 16 16 16 16 16 16 16 16 16 15 15 15 15 15 15 15 15 15 14 14 14 14
16 16 16 16 16 16 16 16 16 16 17 17 17 16 16 16 16 16 15 15 16 16 16 16 15 15 15 15 15 15 15 15 15 15 14 14 14 14
15 15 15 15 15 16 16 16 16 16 16 16 16 16 15 15 15 15 15 16 15 15 15 15 15 15 15 15 15 15 15 15 14 14 14 14 14 14
15 15 15 15 15 15 15 15 15 16 15 15 16 16 15 15 15 15 15 15 15 15 15 15 15 15 15 15 15 15 14 14 14 14 14 14 14 14
15 15 15 15 15 15 15 15 15 15 15 15 15 15 15 15 14 14 15 15 14 15 15 15 14 14 14 14 14 14 14 14 14 14 14 14 14 13
15 15 15 15 15 15 15 15 14 14 15 15 15 15 15 14 14 14 14 14 14 14 14 14 14 14 14 14 14 14 14 13 13 13 13 13 13 13
14 14 14 14 14 14 14 14 14 14 14 14 14 14 14 13 13 13 13 14 14 14 13 13 13 13 13 13 13 13 13 13 13 13 13 12 12 13
14 14 14 14 14 14 14 14 14 14 14 13 13 13 13 13 13 12 12 12 12 12 12 12 13 13 12 13 12 12 12 12 12 12 12 12 12 12
14 14 14 14 13 13 13 13 13 13 13 12 12 12 12 12 12 11 11 11 12 12 11 12 12 12 12 12 11 11 11 11 11 11 11 11 11 11
13 13 13 13 13 13 13 12 12 12 12 12 12 12 12 11 11 11 11 11 11 11 11 10 11 11 11 11 11 11 10 10 10 10 10 10 10 10
12 12 12 12 12 12 12 12 11 11 11 11 11 11 11 10 10 10 10 10 10 11 10 10 10 10 10 10 10 10 10 9 9 9 9 9 9 9
12 11 11 11 11 11 11 11 11 11 10 10 10 9 9 9 9 9 9 9 9 9 9 8 9 9 9 9 9 9 9 9 9 9 9 9 8 8
11 11 10 10 10 10 10 10 10 10 9 9 9 9 9 8 8 8 8 8 8 8 8 8 7 7 8 8 9 9 8 8 8 8 8 8 8 8
10 10 10 9 9 9 9 9 9 9 8 8 8 8 7 7 7 7 7 7 7 7 7 7 7 7 7 7 8 8 8 8 8 7 7 7 7 7
9 9 8 8 8 8 8 8 7 7 7 7 7 7 7 6 6 6 6 6 7 7 7 6 6 6 6 6 7 7 7 7 7 7 7 6 7 7
8 8 7 7 7 7 7 7 6 6 6 6 6 6 6 6 6 6 6 6 6 6 6 6 6 5 5 5 6 6 6 6 6 6 5 6 6 6
7 7 7 7 6 6 6 6 6 5 5 5 5 5 5 5 5 5 5 5 5 5 5 5 5 5 6 6 5 5 5 5 5 5 5 5 5 6
7 6 6 6 5 5 5 5 5 4 4 4 4 4 4 4 4 4 4 4 4 5 5 4 4 4 5 5 5 5 4 4 4 4 5 5 5 5
6 6 5 5 5 4 4 4 4 4 4 4 3 3 3 4 4 4 4 3 3 4 4 4 4 3 3 3 4 4 4 4 4 4 4 4 4 4
5 5 4 4 4 4 3 3 3 3 3 3 3 2 3 3 3 3 3 2 3 3 3 3 3 2 2 3 3 4 4 3 3 3 3 3 4 4
4 4 4 3 3 3 3 3 3 3 2 2 2 2 2 2 2 2 2 2 2 2 2 2 2 2 3 3 3 3 4 3 3 3 3 3 3 3
3 3 3 3 3 3 2 2 2 2 2 2 2 2 2 2 2 2 2 2 2 2 2 2 2 2 3 3 3 3 3 3 3 4 4 3 2 2

GEFSNE_850_meantemp_144.txt.gz
Temperature
17 17 17 17 18 18 18 18 18 18 18 18 18 18 18 17 17 17 17 16 16 16 16 16 16 16 16 15 15 15 15 15 15 15 15 15 15 14
17 17 17 17 17 17 18 18 18 18 18 18 18 18 18 17 17 17 16 16 16 16 16 16 16 16 16 16 16 15 15 15 15 15 15 15 15 14
16 16 17 17 17 17 17 17 17 17 17 18 18 17 17 17 17 17 16 16 16 16 16 16 16 16 16 15 15 15 15 15 15 15 15 14 14 14
16 16 16 16 16 17 17 17 17 17 17 17 17 17 17 17 17 16 16 16 16 16 16 16 16 16 15 15 15 15 15 15 15 15 14 14 14 14
16 16 16 16 16 16 16 16 16 16 16 16 16 16 16 16 16 16 16 15 15 16 16 16 15 15 15 15 15 15 15 14 14 14 14 14 14 14
16 16 16 16 16 16 16 16 16 16 16 16 16 16 16 16 16 15 15 15 15 15 15 15 15 15 15 15 14 14 14 14 14 14 14 13 13 13
15 15 15 15 15 15 15 15 15 15 15 15 15 15 15 15 15 15 15 15 15 15 15 15 14 14 14 14 14 14 13 13 13 13 13 13 13 13
15 15 15 15 15 15 15 15 15 15 15 15 14 14 14 14 14 14 14 14 14 14 14 14 14 14 13 13 13 13 13 13 13 12 12 12 12 12
15 15 14 14 14 14 14 14 14 14 14 14 14 14 13 13 13 13 13 13 13 13 13 13 13 13 13 13 12 12 12 12 12 12 11 11 11 11
14 14 14 14 14 14 14 13 13 13 13 13 13 13 13 12 12 12 12 12 12 12 12 12 12 12 12 12 12 12 11 11 11 11 11 10 10 10
14 13 13 13 13 13 13 13 13 12 12 12 12 12 12 12 12 12 12 12 11 11 11 11 11 11 11 11 11 11 11 10 10 10 10 10 10 9
13 13 13 12 12 12 12 12 12 12 12 11 11 11 11 11 11 10 10 10 10 10 10 10 10 10 10 10 10 10 10 10 10 9 9 9 9 9
12 12 12 12 12 11 11 11 11 11 11 11 10 10 10 10 10 9 9 9 9 9 9 9 9 9 8 9 9 9 9 9 9 9 9 8 8 8
11 11 11 11 11 11 11 10 10 10 10 10 9 9 9 9 9 9 9 9 9 9 8 8 8 8 8 8 8 8 8 8 8 8 8 8 8 8
11 10 10 10 10 10 9 9 9 9 9 9 8 8 8 8 8 8 8 8 8 8 8 8 8 7 7 7 7 7 7 7 7 7 7 7 7 7
9 9 9 9 9 9 8 8 8 8 8 8 7 7 7 7 7 7 7 7 7 7 7 7 7 7 7 7 7 7 7 7 7 6 6 6 6 6
9 9 9 9 8 8 8 8 7 7 7 7 7 7 7 7 7 6 6 6 6 6 6 6 6 6 6 6 6 6 6 6 6 6 6 6 6 6
8 8 8 8 8 7 7 7 7 6 6 6 6 6 6 6 6 6 6 6 5 5 5 5 5 5 5 6 6 5 5 5 5 5 5 5 5 5
8 8 7 7 7 6 6 6 6 6 5 5 5 5 5 5 5 5 5 5 5 5 5 5 5 4 4 4 5 5 5 5 5 5 5 4 4 5
7 7 7 6 6 6 6 5 5 5 5 5 5 5 4 4 4 4 4 4 4 4 4 4 4 4 4 4 4 5 5 5 4 4 4 4 4 4
7 6 6 6 5 5 5 5 5 5 4 4 4 4 4 4 4 4 4 4 4 4 4 4 4 4 4 4 4 4 4 4 4 4 4 4 4 4
6 6 5 5 5 5 5 4 4 4 4 4 3 3 3 3 3 3 3 3 3 3 3 3 3 3 4 4 4 4 4 4 4 4 4 4 4 3
5 5 5 5 4 4 4 4 4 3 3 3 3 3 3 3 3 3 3 3 3 3 3 3 3 3 3 3 4 4 4 4 4 4 4 4 4 3

GEFSNE_850_meantemp_150.txt.gz
Temperature
17 17 17 17 17 17 17 17 17 17 17 17 17 17 17 17 17 17 17 16 16 16 16 16 16 16 15 15 15 15 15 15 15 15 14 14 14 14
17 17 17 17 17 17 17 17 17 17 17 17 17 17 17 17 17 17 16 16 16 16 16 15 15 15 15 15 15 15 15 15 14 14 14 14 14 14
16 16 17 17 17 17 17 17 17 17 17 17 17 17 17 17 17 17 16 16 16 16 16 15 15 15 15 15 15 15 15 14 14 14 14 14 14 14
16 16 16 16 16 16 16 16 16 16 16 16 16 16 16 16 16 16 16 16 16 15 15 15 15 15 15 15 15 14 14 14 14 14 14 14 13 13
16 16 16 16 16 16 16 16 16 16 16 16 16 16 16 16 16 16 15 15 15 15 15 15 15 15 15 15 14 14 14 14 14 13 13 13 13 13
16 16 15 15 15 15 15 15 15 15 15 15 15 15 15 15 15 15 15 15 15 14 14 14 14 14 14 14 14 14 14 13 13 13 13 13 13 12
15 15 15 15 15 15 15 15 15 15 15 15 15 15 15 14 14 14 14 14 14 14 14 13 13 13 13 13 13 13 13 13 12 12 12 12 12 12
15 15 15 15 15 15 14 14 14 14 14 14 14 14 14 13 14 14 13 13 13 13 13 12 12 12 12 12 12 12 12 12 12 11 11 11 11 11
14 14 14 14 14 14 14 14 14 14 13 13 13 13 13 13 13 13 13 12 12 12 12 12 12 11 11 11 11 11 11 11 11 11 11 10 10 10
14 14 14 14 14 14 14 13 13 13 13 13 12 12 12 12 12 12 12 12 11 11 11 11 11 11 10 10 10 10 10 10 10 10 10 10 9 9
13 13 13 13 13 13 13 13 13 12 12 12 11 11 11 11 11 11 11 11 10 10 10 10 10 10 10 10 9 9 9 9 9 9 9 9 9 9
13 12 12 12 12 12 12 12 12 11 11 11 11 10 10 10 10 10 10 10 10 9 9 9 9 9 9 9 8 8 8 8 8 8 8 8 8 8
12 12 12 11 11 11 11 11 11 11 10 10 10 10 9 9 9 9 9 9 9 8 8 8 8 8 8 8 8 8 7 7 8 7 7 7 7 7
11 11 11 11 10 10 10 10 10 10 9 9 9 9 8 8 8 8 8 8 8 7 7 7 7 7 7 7 7 7 7 7 7 7 7 6 6 6
10 10 10 10 10 9 9 9 9 9 8 8 8 8 7 7 7 7 7 7 7 7 6 6 6 6 6 6 6 6 6 6 6 6 6 6 6 6
9 9 9 9 8 8 8 8 8 8 7 7 7 7 7 7 7 6 6 6 6 6 6 6 6 6 6 6 6 5 5 5 5 5 5 5 5 5
9 8 8 8 8 7 7 7 7 7 7 7 6 6 6 6 6 6 5 5 5 5 5 5 5 5 5 5 5 5 5 5 5 5 5 5 5 5
8 8 8 7 7 7 7 6 6 6 6 6 6 6 5 5 5 5 5 5 5 5 5 5 5 5 5 5 4 4 4 4 4 4 4 4 4 4
8 7 7 7 6 6 6 6 6 5 5 5 5 5 5 5 4 4 4 4 4 4 4 4 4 4 4 4 4 4 4 4 4 4 4 4 4 4
7 6 6 6 6 6 5 5 5 5 5 5 4 4 4 4 4 4 4 3 3 3 3 3 3 3 3 3 3 3 3 3 3 3 4 4 4 3
6 6 6 5 5 5 5 5 5 5 4 4 4 4 4 3 3 3 3 3 3 3 3 3 3 3 3 3 3 3 3 3 3 3 3 3 3 3
6 5 5 5 5 5 5 4 4 4 4 4 3 3 3 3 3 3 3 3 3 3 2 3 3 3 3 3 3 3 3 3 3 3 3 3 3 3
5 5 5 5 5 4 4 4 4 4 3 3 3 3 3 3 3 2 2 2 2 2 2 2 2 2 2 2 3 3 3 3 3 3 3 3 3 2

GEFSNE_850_meantemp_156.txt.gz
Temperature
16 16 16 16 16 16 16 16 16 16 16 17 17 17 17 17 17 17 16 16 16 16 16 16 15 15 15 15 15 15 15 14 14 14 14 14 14 14
16 16 16 16 16 16 16 16 16 16 16 16 16 16 17 17 16 16 16 16 16 16 16 15 15 15 15 15 15 15 14 14 14 14 14 14 14 14
16 16 16 16 16 16 16 16 16 16 16 16 16 16 16 16 16 16 16 16 16 16 16 15 15 15 15 15 15 14 14 14 14 14 14 14 13 13
16 16 16 16 16 16 15 15 15 15 15 15 15 15 16 16 16 16 16 15 15 15 15 15 15 15 15 14 14 14 14 14 14 13 13 13 13 13
15 15 15 15 15 15 15 15 15 15 15 15 15 15 15 15 15 15 15 15 15 15 15 15 15 14 14 14 14 14 13 13 13 13 13 13 13 12
15 15 15 15 15 15 15 15 15 15 15 14 14 14 14 14 14 14 14 14 14 14 14 14 14 14 13 13 13 13 13 13 13 12 12 12 12 12
15 15 14 14 14 14 14 14 14 14 14 14 14 14 14 14 14 14 14 14 13 13 13 13 13 13 12 12 12 12 12 12 12 12 11 11 11 11
14 14 14 14 14 14 14 14 14 14 14 13 13 13 13 13 13 13 13 13 13 12 12 12 12 12 11 11 11 11 11 11 11 11 11 10 10 10
14 14 14 14 14 14 14 14 13 13 13 13 13 12 12 12 12 12 12 12 12 11 11 11 11 11 10 10 10 10 10 10 10 10 10 10 9 9
14 13 13 13 13 13 13 13 13 13 12 12 12 12 12 11 11 11 11 11 11 10 10 10 10 10 9 9 9 9 9 9 9 9 9 9 9 8
13 13 13 13 13 12 12 12 12 12 11 11 11 11 11 11 11 11 10 10 10 10 9 9 9 9 9 9 8 8 8 8 8 8 8 8 8 8
13 12 12 12 12 12 12 11 11 11 10 10 10 10 10 10 10 10 9 9 9 9 8 8 8 8 8 8 8 7 7 7 7 7 7 7 7 7
12 11 11 11 11 11 11 10 10 10 10 10 9 9 9 9 9 9 8 8 8 8 8 8 7 7 7 7 7 7 7 7 7 6 6 6 6 6
11 10 10 10 10 10 10 9 9 9 9 9 8 8 8 7 7 7 7 8 7 7 7 7 7 6 6 6 6 6 6 6 6 6 6 6 6 5
10 10 9 9 9 9 9 9 8 8 8 8 7 7 6 6 6 6 6 6 6 6 6 6 6 6 6 6 5 5 5 5 5 5 5 5 5 5
9 9 9 9 8 8 8 8 7 7 7 7 6 6 6 6 6 6 6 6 6 5 5 5 5 5 5 5 5 5 5 5 4 4 4 4 4 4
9 8 8 8 8 7 7 7 7 6 6 6 6 5 5 5 5 5 5 5 5 5 5 5 5 5 5 5 4 4 4 4 4 4 4 4 4 4
8 8 7 7 7 6 6 6 6 6 5 5 5 5 5 5 5 5 4 4 4 4 4 4 4 4 4 4 4 3 3 3 3 3 3 3 3 3
8 7 7 6 6 6 6 5 5 5 5 5 5 5 4 4 4 4 4 4 4 4 3 3 3 3 3 3 3 3 3 3 3 3 3 3 3 3
7 6 6 6 5 5 5 5 5 5 5 4 4 4 4 4 4 3 3 3 3 3 3 3 3 3 3 2 2 3 3 3 3 3 3 3 3 3
6 6 5 5 5 5 5 4 4 4 4 4 4 4 3 3 3 3 3 3 3 2 2 2 2 2 2 2 2 2 2 2 2 2 2 2 2 2
5 5 5 5 5 4 4 4 4 4 4 4 3 3 3 3 3 3 2 2 2 2 2 2 2 2 2 2 2 2 2 2 2 2 2 2 2 2
5 5 5 4 4 4 4 4 4 4 3 3 3 3 3 3 2 2 2 2 2 2 2 2 2 2 2 2 2 2 2 2 2 2 2 2 2 2

GEFSNE_850_meantemp_162.txt.gz
Temperature
16 16 16 17 16 16 17 17 17 17 18 18 17 17 17 17 16 16 16 16 16 16 16 16 16 16 15 15 15 15 15 15 15 14 14 14 14 14
16 16 16 16 16 16 16 16 16 17 17 17 17 17 16 16 16 16 16 16 16 16 16 16 16 15 15 15 15 15 15 15 14 14 14 14 14 14
16 16 16 16 16 16 16 16 16 16 16 16 16 16 16 16 16 15 15 15 15 16 16 15 15 15 15 15 15 15 14 14 14 14 14 14 13 13
16 16 16 16 16 16 15 15 16 15 15 15 16 16 15 15 15 15 15 15 15 15 15 15 15 15 15 14 14 14 14 14 14 14 13 13 13 13
15 15 15 15 15 15 15 15 15 15 15 15 15 15 15 15 15 14 14 14 14 14 14 14 14 14 14 14 14 14 14 13 13 13 13 13 12 12
15 15 15 15 15 15 15 14 14 14 14 14 14 14 14 14 14 14 14 14 14 14 13 13 13 13 13 13 13 13 13 13 12 12 12 12 12 12
15 15 14 14 14 14 14 14 14 14 14 14 14 14 14 14 14 13 13 13 13 13 13 12 12 12 12 12 12 12 12 12 11 11 11 11 11 11
14 14 14 14 14 14 14 14 14 13 13 13 13 13 13 13 13 13 12 12 12 12 12 11 11 11 11 11 11 11 11 10 10 10 10 10 10 10
14 14 13 13 13 13 13 13 13 13 13 12 12 12 12 12 12 12 11 11 11 11 11 11 10 10 10 10 10 10 10 9 9 9 9 9 9 9
13 13 13 13 13 13 13 12 12 12 12 12 12 12 11 11 11 11 11 11 11 10 10 10 10 9 9 9 9 9 9 8 8 8 8 8 8 8
13 13 13 13 12 12 12 12 12 11 11 11 11 11 11 11 11 11 11 11 10 10 9 9 9 9 9 8 8 8 8 8 8 8 8 7 7 7
12 12 12 12 12 12 11 11 11 10 10 10 10 10 10 10 10 10 10 10 10 9 9 9 9 9 8 8 8 7 7 7 7 7 7 7 7 7
11 11 11 11 11 11 11 10 10 10 9 10 10 9 9 9 9 9 9 8 8 8 8 8 8 8 8 8 7 7 7 7 7 6 6 6 6 6
10 10 10 10 10 10 10 10 9 9 9 9 9 9 8 8 8 8 7 7 7 7 7 7 7 7 7 8 7 7 7 6 6 6 6 6 6 6
10 10 10 9 9 9 9 9 8 8 8 8 8 7 7 7 7 7 7 7 7 6 6 6 6 6 7 7 7 7 6 6 6 6 6 6 6 5
9 9 9 9 8 8 8 8 8 7 7 7 7 7 7 7 6 6 6 7 7 6 6 6 6 6 6 6 6 6 6 6 6 6 5 5 5 5
8 8 8 8 8 7 7 7 7 7 7 7 7 7 6 6 6 6 6 6 7 6 6 6 6 6 5 6 6 6 6 6 5 5 5 5 5 5
8 8 8 8 7 7 7 7 6 6 6 6 6 6 6 6 6 6 6 6 6 6 6 6 6 6 6 6 5 5 5 5 5 5 5 5 5 5
8 8 7 7 7 7 6 6 6 6 5 6 6 6 6 6 6 6 6 6 6 6 6 5 5 6 6 6 5 4 4 4 5 5 5 5 5 4
7 7 7 6 6 6 6 6 5 5 5 5 5 5 5 5 6 6 5 5 5 5 5 5 5 5 5 5 5 5 4 4 4 4 4 4 4 4
7 6 6 6 6 5 5 5 5 5 5 5 5 5 5 5 5 5 5 5 5 5 5 5 4 4 4 4 5 5 4 4 4 3 3 4 4 4
6 6 6 5 5 5 5 5 5 5 5 5 4 4 4 5 5 5 5 5 5 5 5 5 4 4 5 5 5 5 5 4 4 4 3 3 3 3
6 5 5 5 5 5 5 5 5 5 4 4 4 4 4 4 4 5 5 5 5 5 5 5 5 5 5 5 5 5 5 4 5 4 4 4 3 3

GEFSNE_850_meantemp_168.txt.gz
Temperature
17 17 17 17 17 17 17 17 17 17 17 17 17 17 17 17 17 17 17 16 16 16 16 16 16 16 16 15 15 15 15 15 15 15 14 14 14 14
17 17 17 17 17 17 17 17 17 17 17 17 17 17 17 16 16 16 16 16 16 16 16 15 15 15 15 15 15 15 15 15 15 14 14 14 14 14
16 16 16 17 16 16 17 17 17 16 16 16 16 16 16 16 16 16 16 16 15 15 15 15 15 15 15 15 14 14 14 14 14 14 14 14 14 13
16 16 16 16 16 16 16 16 16 16 16 16 16 16 15 15 15 15 15 15 15 15 15 14 14 14 14 14 14 14 14 14 14 14 13 13 13 13
16 16 16 16 16 16 16 16 16 16 15 15 15 15 15 15 15 15 15 14 14 14 14 14 14 13 13 13 13 13 13 13 13 13 13 13 12 12
15 15 15 15 15 15 15 15 15 15 15 15 14 14 14 14 14 14 14 14 14 13 13 13 13 13 13 13 12 12 12 12 12 12 12 12 12 11
15 15 15 15 15 15 15 15 15 14 14 14 14 14 14 14 14 13 13 13 13 13 12 12 12 12 12 12 12 11 11 11 11 11 11 11 11 11
14 14 14 14 14 14 14 14 14 14 14 14 13 13 13 13 13 13 13 13 12 12 12 12 11 11 11 11 11 10 10 10 10 10 10 10 10 10
14 14 14 14 14 13 13 13 13 13 13 13 13 12 12 12 12 12 12 12 12 12 11 11 11 10 10 10 10 10 10 9 9 9 9 9 9 9
14 13 13 13 13 13 13 13 13 12 12 12 12 12 12 12 12 12 12 11 11 11 11 10 10 10 9 9 9 9 9 9 8 8 8 8 8 8
13 13 13 13 12 12 12 12 12 12 11 11 11 11 11 11 11 11 11 11 10 10 10 10 9 9 9 9 9 8 8 8 8 8 8 8 8 7
12 12 12 12 12 12 11 11 11 11 11 11 11 10 10 10 10 10 10 10 10 9 9 9 9 9 8 8 8 8 8 8 7 7 7 7 7 7
12 11 11 11 11 11 11 11 10 10 10 10 10 10 10 10 9 9 9 9 9 9 8 8 8 8 8 8 8 8 7 7 7 7 7 7 7 7
11 11 10 10 10 10 10 10 10 10 10 10 9 9 9 9 9 8 8 8 8 8 8 8 8 8 8 7 7 7 7 7 7 7 7 6 6 6
10 10 10 10 10 10 10 9 9 9 9 9 9 8 8 8 8 8 8 8 8 8 8 7 7 7 7 7 7 7 7 7 6 6 6 6 6 6
10 9 9 9 9 9 9 9 9 9 8 8 8 8 8 8 7 7 7 7 7 7 7 7 7 7 7 7 7 7 7 6 6 6 6 6 6 6
9 9 9 9 9 9 8 8 8 8 8 8 8 8 8 7 7 7 7 7 7 7 7 7 7 7 7 7 7 6 6 6 6 6 6 6 5 5
9 9 8 8 8 8 8 8 8 8 7 7 7 7 7 7 7 7 7 7 7 7 7 6 6 6 7 6 6 6 6 6 6 5 5 5 5 5
9 8 8 8 8 8 8 7 7 7 7 7 7 7 7 7 7 7 7 7 6 6 6 6 6 6 6 6 6 6 6 5 5 5 5 5 5 5
8 8 8 8 8 7 7 7 7 7 7 7 6 6 6 6 6 6 6 6 6 6 6 6 6 6 6 6 6 6 6 5 5 5 5 5 5 5
8 8 7 7 7 7 7 7 6 6 6 6 6 6 6 6 6 6 6 6 6 6 6 6 6 6 6 6 6 6 6 6 5 5 5 5 5 5
8 7 7 7 7 7 7 6 6 6 6 6 6 6 6 6 6 6 6 6 6 6 6 6 6 6 6 6 6 6 6 6 5 5 5 5 5 5
7 7 7 7 7 6 6 6 6 6 6 6 6 6 6 6 6 6 6 6 6 6 6 6 6 6 6 6 6 6 6 6 5 5 5 5 5 5

GEFSNE_850_meantemp_174.txt.gz
Temperature
17 17 17 17 17 17 17 16 16 16 16 16 16 16 16 16 16 16 16 16 16 15 15 15 15 15 15 15 15 15 14 14 14 14 14 14 14 14
17 16 16 16 16 16 16 16 16 16 16 16 16 16 16 16 16 15 15 15 15 15 15 15 15 15 14 14 14 14 14 14 14 14 14 13 13 13
16 16 16 16 16 16 16 16 16 16 16 15 15 15 15 15 15 15 15 15 15 15 15 14 14 14 14 14 14 13 13 13 13 13 13 13 13 13
16 16 16 15 15 15 15 15 15 15 15 15 15 15 15 15 14 14 14 14 14 14 14 14 14 13 13 13 13 13 13 13 13 12 12 12 12 12
15 15 15 15 15 15 15 15 15 15 15 14 14 14 14 14 14 14 14 13 13 13 13 13 13 13 12 12 12 12 12 12 12 12 12 12 12 11
15 15 15 15 15 15 15 14 14 14 14 14 14 14 14 13 13 13 13 13 13 12 12 12 12 12 12 12 11 11 11 11 11 11 11 11 11 11
15 14 14 14 14 14 14 14 14 14 14 14 13 13 13 13 13 13 12 12 12 12 12 11 11 11 11 11 11 11 10 10 10 10 10 10 10 10
14 14 14 14 14 14 13 13 13 13 13 13 13 12 12 12 12 12 12 12 11 11 11 11 10 10 10 10 10 10 10 9 9 9 9 9 9 9
14 13 13 13 13 13 13 13 13 12 12 12 12 12 12 12 11 11 11 11 11 11 11 10 10 10 9 9 9 9 9 8 8 8 8 8 8 8
13 13 13 12 12 12 12 12 12 12 11 11 11 11 11 11 11 11 11 10 10 10 10 9 9 9 9 8 8 8 8 8 8 8 8 7 7 7
12 12 12 12 11 11 11 11 11 11 11 10 10 10 10 10 10 10 10 10 10 9 9 9 8 8 8 8 8 7 7 7 7 7 7 7 7 7
12 11 11 11 11 11 11 11 10 10 10 10 10 10 10 10 10 9 9 9 9 8 8 8 8 8 7 7 7 7 7 7 7 6 6 6 6 6
11 11 11 10 10 10 10 10 10 10 9 9 9 9 9 9 9 9 9 8 8 8 8 8 7 7 7 7 7 6 6 6 6 6 6 6 6 6
10 10 10 10 10 10 9 9 9 9 9 9 9 9 8 8 8 8 8 8 8 8 7 7 7 7 7 7 6 6 6 6 6 6 6 6 5 5
10 9 9 9 9 9 9 9 9 9 9 9 8 8 8 8 8 8 8 8 7 7 7 7 7 7 7 6 6 6 6 6 6 6 6 5 5 5
9 9 9 9 9 9 8 8 8 8 8 8 8 8 8 8 7 7 7 7 7 7 7 6 6 6 6 6 6 6 6 6 5 5 5 5 5 5
9 9 9 8 8 8 8 8 8 8 8 8 7 7 7 7 7 7 7 7 6 6 6 6 6 6 6 6 6 6 6 5 5 5 5 5 5 5
9 8 8 8 8 8 7 7 7 7 7 7 7 7 7 7 7 6 6 6 6 6 6 6 6 6 6 6 6 6 5 5 5 5 5 5 5 5
8 8 8 8 7 7 7 7 7 7 7 7 7 7 7 7 6 6 6 6 6 6 6 6 6 6 6 6 6 6 5 5 5 5 5 5 5 5
8 8 8 7 7 7 7 7 7 7 7 6 6 6 6 6 6 6 6 6 6 6 6 6 6 6 6 6 6 6 6 5 5 5 5 5 5 5
8 7 7 7 7 7 7 7 7 6 6 6 6 6 6 6 6 6 6 6 6 6 6 6 6 6 6 6 6 6 6 5 5 5 5 5 5 5
7 7 7 7 7 7 7 7 7 6 6 6 6 6 6 6 6 6 6 6 6 6 5 5 5 6 6 6 6 6 5 5 5 5 5 5 5 5
7 7 7 7 7 7 7 6 6 6 6 6 6 6 6 6 6 6 6 5 5 5 5 5 5 5 5 5 5 5 5 5 5 5 5 5 5 5

GEFSNE_850_meantemp_180.txt.gz
Temperature
16 16 16 16 16 16 16 16 16 15 15 15 15 15 15 15 15 15 15 15 15 15 15 15 15 14 14 14 14 14 14 14 14 13 13 13 13 13
16 16 16 16 16 16 16 16 15 15 15 15 15 15 15 15 15 15 15 15 14 14 14 14 14 14 14 14 14 14 13 13 13 13 13 13 13 13
16 15 15 15 15 15 15 15 15 15 15 15 15 14 14 14 14 14 14 14 14 14 14 14 14 13 13 13 13 13 13 13 13 13 12 12 12 12
15 15 15 15 15 15 15 15 15 15 15 14 14 14 14 14 14 14 13 13 13 13 13 13 13 13 13 13 12 12 12 12 12 12 12 12 12 11
15 15 15 15 15 15 15 14 14 14 14 14 14 13 13 13 13 13 13 13 12 12 12 12 12 12 12 12 12 12 11 11 11 11 11 11 11 11
14 14 14 14 14 14 14 14 14 14 13 13 13 13 13 12 12 12 12 12 12 12 11 11 11 11 11 11 11 11 11 11 10 10 10 10 10 10
14 14 14 14 14 13 13 13 13 13 13 13 13 12 12 12 12 12 12 11 11 11 11 11 11 10 10 10 10 10 10 10 9 9 9 9 9 9
14 13 13 13 13 13 13 13 13 12 12 12 12 12 11 11 11 11 11 11 11 10 10 10 10 10 9 9 9 9 9 9 9 9 8 8 8 8
13 13 13 12 12 12 12 12 12 12 12 11 11 11 11 11 11 10 10 10 10 10 10 9 9 9 8 8 8 8 8 8 8 8 8 7 7 7
12 12 12 12 12 12 12 12 12 11 11 11 11 10 10 10 10 10 10 9 9 9 9 9 8 8 8 8 8 8 8 7 7 7 7 7 7 7
12 11 11 11 11 11 11 11 11 10 10 10 10 10 10 9 9 9 9 9 9 8 8 8 8 8 7 7 7 7 7 7 6 6 6 6 6 6
11 11 11 11 10 10 10 10 10 10 10 9 9 9 9 9 9 9 9 9 8 8 8 8 8 7 7 7 6 6 6 6 6 6 6 6 6 6
11 10 10 10 10 10 10 9 9 9 9 9 9 9 8 8 8 8 8 8 8 8 7 7 7 7 7 6 6 6 6 6 6 5 5 5 5 5
10 10 9 9 9 9 9 9 9 8 8 8 8 8 8 8 8 8 8 8 7 7 7 7 7 7 7 6 6 6 6 6 5 5 5 5 5 5
9 9 9 9 9 9 8 8 8 8 8 8 8 8 7 7 7 7 7 7 7 7 7 7 7 7 6 6 6 6 5 5 5 5 5 5 5 5
9 9 8 8 8 8 8 8 8 8 8 8 7 7 7 7 7 7 7 7 7 7 6 6 6 6 6 6 6 5 5 5 5 5 5 5 4 4
8 8 8 8 8 8 8 8 7 7 7 7 7 7 7 7 7 7 6 6 6 6 6 6 6 6 6 6 5 5 5 5 5 5 5 5 4 4
8 8 8 8 7 7 7 7 7 7 7 7 7 7 6 6 6 6 6 6 6 6 6 6 6 6 6 6 5 5 5 5 5 5 5 4 4 4
8 8 8 7 7 7 7 7 7 7 7 6 6 6 6 6 6 6 6 6 6 6 6 5 5 5 5 5 5 5 5 5 5 5 5 5 5 4
8 7 7 7 7 7 7 7 7 6 6 6 6 6 6 6 6 6 6 6 6 5 5 5 5 5 5 5 5 5 5 5 5 5 5 5 5 5
7 7 7 7 7 7 6 6 6 6 6 6 6 6 6 6 6 6 6 5 5 5 5 5 5 5 5 5 5 5 5 5 5 5 5 5 5 5
7 7 7 7 7 7 6 6 6 6 6 6 6 6 6 6 5 5 5 5 5 5 5 5 5 5 5 5 5 5 5 5 5 5 5 5 5 4
7 7 7 7 7 6 6 6 6 6 6 6 6 6 6 5 5 5 5 5 5 5 5 5 5 5 5 5 5 5 5 5 5 5 5 5 4 4

GEFSNE_850_meantemp_186.txt.gz
Temperature
16 16 16 16 16 16 16 16 16 16 16 15 15 15 15 15 15 14 14 14 14 15 15 14 14 14 14 14 14 14 14 14 14 14 13 13 13 13
16 16 16 16 16 15 16 16 16 16 15 15 15 15 14 14 14 14 14 14 14 14 14 14 14 14 14 14 13 13 13 13 13 13 13 13 13 13
16 16 16 16 15 15 15 15 15 15 15 15 14 14 14 14 14 13 13 13 13 13 13 13 13 13 13 13 13 13 13 12 12 12 12 12 12 12
15 15 15 15 15 15 15 15 15 15 14 14 14 14 13 13 13 13 13 13 13 13 13 13 12 12 12 12 12 12 12 12 12 12 12 11 11 11
15 15 15 15 15 14 15 14 14 14 14 14 13 13 13 13 13 12 12 12 12 12 12 12 12 12 11 11 11 11 11 11 11 11 11 11 11 10
15 15 14 14 14 14 14 14 14 14 13 13 13 13 13 12 12 12 12 11 11 11 11 11 11 11 11 11 11 10 10 10 10 10 10 10 10 10
14 14 14 14 14 14 13 13 13 13 13 13 12 12 12 11 11 11 11 11 11 10 10 10 10 10 10 10 10 10 10 9 9 9 9 9 9 9
13 13 13 13 13 13 13 13 13 12 12 12 12 11 11 11 11 11 11 11 10 10 10 10 9 9 9 9 9 9 9 9 9 9 8 8 8 8
13 13 12 12 12 12 12 12 12 12 12 11 11 11 11 10 10 10 10 10 10 9 9 9 9 9 8 8 8 8 8 8 8 8 8 8 7 7
12 12 12 12 12 12 11 11 11 11 11 11 11 10 10 10 10 10 10 9 9 9 9 9 9 8 8 8 8 8 8 7 7 7 7 7 7 7
12 12 11 11 11 11 11 11 11 10 10 10 10 10 10 10 10 10 9 10 9 9 9 9 8 8 8 8 8 7 7 7 7 7 7 7 6 6
11 11 11 11 11 11 10 10 10 10 10 9 9 9 9 9 9 9 9 9 10 9 8 9 9 8 8 8 7 7 7 7 7 6 6 6 6 6
11 10 10 11 10 10 10 10 10 9 9 9 9 9 9 9 9 9 9 9 9 9 8 8 8 8 9 8 7 7 7 7 6 6 6 6 6 6
10 10 10 10 10 10 10 9 9 9 9 9 9 9 9 8 8 8 8 8 8 8 8 8 8 8 8 8 8 7 7 7 6 6 6 6 6 5
10 10 10 9 9 9 9 9 9 9 9 9 9 9 8 8 8 8 8 8 8 7 7 7 7 8 8 8 8 8 7 7 6 6 6 6 6 6
9 9 9 9 9 9 8 8 8 8 8 9 8 8 8 8 8 8 8 8 8 8 7 7 7 7 7 7 7 7 7 7 7 6 6 6 6 6
9 9 9 9 8 8 8 8 8 8 8 8 8 8 8 8 8 8 7 8 8 8 8 7 7 7 7 7 7 7 7 7 7 6 6 6 6 6
9 9 9 9 9 8 8 8 8 8 8 8 8 8 8 8 8 7 7 8 8 8 7 7 7 7 7 7 7 7 7 7 6 6 6 6 6 6
9 9 9 8 8 8 8 8 8 8 7 8 8 8 7 8 7 7 7 7 7 7 7 7 7 7 7 8 7 6 6 6 6 6 6 6 6 6
9 9 8 8 8 8 8 8 8 8 7 7 7 7 7 7 7 7 7 7 7 7 7 7 7 7 7 7 7 6 6 6 6 6 6 6 6 6
9 8 8 8 8 8 8 8 7 7 7 7 7 7 7 7 7 7 7 7 7 7 7 7 6 6 6 6 7 7 7 6 6 6 6 6 6 6
8 8 8 8 8 8 7 7 7 7 7 7 7 7 7 7 7 7 7 7 7 7 7 7 7 6 6 7 7 7 7 6 6 6 6 6 6 6
8 8 8 8 8 7 7 7 7 7 7 7 7 7 7 7 7 7 7 7 7 7 7 7 7 7 7 7 7 7 6 6 6 6 6 6 6 5

GEFSNE_850_meantemp_192.txt.gz
Temperature
17 17 17 17 17 17 16 16 16 16 16 16 15 15 15 15 15 15 15 14 14 14 14 14 14 14 14 14 13 13 13 13 13 13 13 13 13 13
16 17 16 16 16 16 16 16 16 16 15 15 15 15 15 14 14 14 14 14 14 14 14 13 13 13 13 13 13 13 13 13 13 13 12 12 12 12
16 16 16 16 16 16 16 15 15 15 15 15 14 14 14 14 14 14 13 13 13 13 13 13 13 13 13 12 12 12 12 12 12 12 12 12 12 12
16 16 16 15 15 15 15 15 15 15 15 14 14 13 13 13 13 13 13 13 13 12 12 12 12 12 12 12 12 11 11 11 11 11 11 11 11 11
15 15 15 15 15 15 15 15 15 15 14 14 13 13 13 13 12 12 12 12 12 12 12 12 11 11 11 11 11 11 11 11 11 11 11 10 10 10
15 15 15 15 15 15 15 14 14 14 14 14 13 12 12 12 12 12 12 11 11 11 11 11 11 11 10 10 10 10 10 10 10 10 10 10 10 10
15 15 14 14 14 14 14 14 14 14 13 13 12 12 12 12 12 11 11 11 11 11 10 10 10 10 10 10 10 10 10 9 9 9 9 9 9 9
14 14 14 14 14 14 13 13 13 13 13 12 12 12 11 11 11 11 11 11 10 10 10 10 10 10 10 10 9 9 9 9 9 9 9 8 8 8
13 13 13 13 13 13 13 13 12 12 12 12 12 11 11 11 11 11 11 10 10 10 10 9 9 9 9 9 9 9 8 8 8 8 8 8 8 8
13 13 13 13 12 12 12 12 12 12 11 11 11 11 11 11 11 10 10 10 10 10 10 9 9 9 9 9 9 8 8 8 8 8 8 7 7 7
13 12 12 12 12 12 12 12 11 11 11 11 11 11 10 10 10 10 10 10 10 10 9 9 9 9 9 9 9 8 8 8 8 7 7 7 7 7
12 12 12 12 12 11 11 11 11 11 11 11 11 10 10 10 10 10 10 10 10 9 9 9 9 9 9 9 9 8 8 8 8 7 7 7 7 7
12 11 11 11 11 11 11 11 11 11 11 10 10 10 10 10 10 10 10 10 9 9 9 9 9 9 9 8 8 8 8 8 8 7 7 7 7 7
11 11 11 11 11 11 11 10 10 10 10 10 10 10 9 9 9 9 9 9 9 9 9 9 9 9 9 8 8 8 8 8 7 7 7 7 7 6
11 11 10 10 10 10 10 10 10 10 10 10 9 9 9 9 9 9 9 9 9 9 9 9 9 9 8 8 8 8 8 7 7 7 7 7 7 6
10 10 10 10 10 10 10 10 10 10 9 9 9 9 9 9 9 9 9 9 9 9 9 8 8 8 8 8 8 8 8 7 7 7 7 7 7 7
10 10 10 10 10 10 10 10 9 9 9 9 9 9 9 9 9 9 9 8 8 8 8 8 8 8 8 8 8 8 8 7 7 7 7 7 7 7
10 10 10 10 10 10 10 10 9 9 9 9 9 9 9 9 9 9 9 9 8 8 8 8 8 8 8 8 8 7 7 7 7 7 7 7 7 7
10 10 10 10 10 10 10 9 9 9 9 9 9 9 9 9 9 9 9 8 8 8 8 8 8 8 8 7 7 7 7 7 7 7 7 7 7 7
10 10 10 10 10 9 9 9 9 9 9 9 9 9 9 9 9 9 8 8 8 8 8 8 8 8 7 7 7 7 7 7 7 7 7 7 7 7
10 10 10 10 9 9 9 9 9 9 9 9 8 8 8 8 8 8 8 8 8 8 8 8 8 8 7 7 7 7 7 7 7 7 7 7 7 7
10 10 10 9 9 9 9 9 9 9 8 8 8 8 8 8 8 8 8 8 8 8 8 8 8 7 7 7 7 7 7 7 7 7 7 7 7 6
10 10 9 9 9 9 9 9 8 8 8 8 8 8 8 8 8 8 8 8 8 8 7 7 7 7 7 7 7 7 7 7 7 7 7 7 7 7

GEFSNE_850_meantemp_198.txt.gz
Temperature
16 16 16 16 16 16 16 16 16 15 14 15 14 14 14 14 14 14 14 14 14 14 13 13 13 13 13 13 13 13 13 13 13 13 13 12 12 12
16 16 16 16 16 16 16 16 15 15 15 14 14 14 14 14 13 13 13 13 13 13 13 13 13 13 13 12 12 12 12 12 12 12 12 12 12 12
16 16 16 16 16 16 15 15 15 15 15 14 14 13 13 13 13 13 12 12 12 12 12 12 12 12 12 12 12 12 12 12 11 11 11 11 11 11
16 16 15 15 15 15 15 15 15 15 15 14 13 13 13 13 12 12 12 12 12 12 11 11 11 11 11 11 11 11 11 11 11 11 11 10 10 10
15 15 15 15 15 15 15 14 14 14 14 14 13 12 12 12 12 12 11 11 11 11 11 11 11 11 11 10 10 10 10 10 10 10 10 10 10 10
15 15 14 14 14 14 14 14 14 14 14 13 13 12 12 11 11 11 11 11 11 11 10 10 10 10 10 10 10 10 10 10 10 9 9 9 9 9
14 14 14 14 14 14 14 14 13 13 13 13 12 12 11 11 11 11 10 10 10 10 10 10 10 10 10 10 9 9 9 9 9 9 9 9 8 8
14 14 14 14 13 13 13 13 13 13 13 12 12 11 11 11 11 10 10 10 10 10 10 10 10 9 9 9 9 9 9 8 8 8 8 8 8 8
14 14 13 13 13 13 12 12 12 12 12 12 12 11 11 11 10 10 10 10 10 10 9 9 9 9 9 9 9 9 8 8 8 8 8 7 7 7
13 13 13 13 12 12 12 12 12 11 11 11 11 11 11 10 10 10 10 10 9 9 9 9 9 9 9 9 8 8 8 8 8 8 7 7 7 7
13 12 12 12 12 12 12 12 11 11 11 11 10 10 10 10 10 10 10 10 9 9 9 9 9 9 8 8 8 8 8 8 8 7 7 7 7 7
12 12 12 12 11 11 11 11 11 11 10 10 10 10 10 10 10 10 9 9 9 9 9 8 8 8 8 8 8 8 8 8 7 7 7 7 7 7
12 12 11 11 11 11 11 11 10 10 10 10 10 10 10 9 9 9 9 9 9 9 9 8 8 8 8 8 8 8 8 8 7 7 7 7 7 7
12 11 11 11 11 10 10 10 10 10 10 10 9 9 9 9 9 9 9 9 9 8 8 8 8 8 8 8 8 8 8 7 7 7 7 7 7 7
11 11 11 10 10 10 10 10 10 10 10 9 9 9 9 9 9 9 9 9 8 8 8 8 8 8 8 8 8 8 8 7 7 7 7 7 7 7
11 10 10 10 10 10 10 10 10 9 9 9 9 9 9 9 9 9 8 8 8 8 8 8 8 8 8 8 8 8 7 7 7 7 7 7 7 6
10 10 10 10 10 10 10 10 9 9 9 9 9 9 9 9 8 8 8 8 8 8 8 8 8 8 7 7 7 7 7 7 7 7 7 7 7 6
10 10 10 10 10 10 10 9 9 9 9 9 9 9 9 8 8 8 8 8 8 8 8 8 8 7 7 7 7 7 7 7 7 7 7 7 7 6
10 10 10 10 10 10 9 9 9 9 9 9 8 8 8 8 8 8 8 8 8 8 7 7 7 7 7 7 7 7 7 7 7 7 7 7 6 6
10 10 10 10 10 9 9 9 9 9 9 9 8 8 8 8 8 8 8 8 8 8 7 7 7 7 7 7 7 7 7 7 7 7 7 6 6 6
10 10 10 10 9 9 9 9 9 9 9 8 8 8 8 8 8 8 8 8 7 7 7 7 7 7 7 7 7 7 7 7 7 6 6 6 6 6
10 10 10 10 9 9 9 9 9 8 8 8 8 8 8 8 8 7 7 7 7 7 7 7 7 7 7 6 6 6 6 6 6 6 6 6 6 6
10 10 10 10 9 9 9 9 8 8 8 8 8 8 8 7 7 7 7 7 7 7 7 7 7 6 6 6 6 6 6 6 6 6 6 6 6 6

GEFSNE_850_meantemp_204.txt.gz
Temperature
16 16 16 16 16 16 15 15 15 14 14 14 14 14 14 14 14 13 13 13 13 13 13 13 13 13 13 13 13 13 13 13 12 12 12 12 12 12
16 16 16 16 15 15 15 15 15 15 14 14 14 13 13 13 13 13 13 13 13 12 12 12 12 12 12 12 12 12 12 12 12 12 12 11 11 11
16 16 16 15 15 15 15 15 15 14 14 13 13 13 13 13 13 12 12 12 12 12 12 12 11 11 11 11 11 11 11 11 11 11 11 11 11 11
15 15 15 15 15 15 15 14 14 14 14 13 13 13 12 12 12 12 12 12 12 11 11 11 11 11 11 11 11 11 10 10 10 10 10 10 10 10
15 15 15 15 15 14 14 14 14 14 14 13 13 12 12 12 12 11 11 11 11 11 11 11 10 10 10 10 10 10 10 10 10 9 9 9 9 9
14 14 14 14 14 14 14 14 13 13 13 13 12 12 12 11 11 11 11 11 10 10 10 10 10 10 10 10 10 9 9 9 9 9 9 9 9 9
14 14 14 14 14 14 13 13 13 13 13 12 12 12 11 11 11 11 11 10 10 10 10 10 10 9 9 9 9 9 9 9 8 8 8 8 8 8
14 13 13 13 13 13 13 13 13 12 12 12 12 11 11 11 11 10 10 10 10 10 10 9 9 9 9 9 9 8 8 8 8 8 8 8 7 7
13 13 13 13 13 13 12 12 12 12 12 12 11 11 11 11 10 10 10 10 10 9 9 9 9 9 8 8 8 8 8 8 8 8 7 7 7 7
13 13 13 12 12 12 12 12 12 11 11 11 11 11 10 10 10 10 10 9 9 9 9 9 8 8 8 8 8 8 8 8 7 7 7 7 7 7
12 12 12 12 12 12 12 11 11 11 11 11 10 10 10 10 10 10 9 9 9 9 9 8 8 8 8 8 8 8 8 8 7 7 7 7 7 7
12 12 12 11 11 11 11 11 11 11 10 10 10 10 10 10 9 9 9 9 9 8 8 8 8 8 8 8 8 8 8 7 7 7 7 7 7 7
12 11 11 11 11 11 11 11 10 10 10 10 10 10 9 9 9 9 9 9 9 8 8 8 8 8 8 8 8 7 7 7 7 7 7 7 7 7
11 11 11 11 11 10 10 10 10 10 10 10 10 9 9 9 9 9 9 8 8 8 8 8 8 8 8 8 7 7 7 7 7 7 7 7 7 6
11 11 10 10 10 10 10 10 10 10 10 9 9 9 9 9 9 8 8 8 8 8 8 8 8 8 7 7 7 7 7 7 7 7 7 7 6 6
11 10 10 10 10 10 10 10 10 9 9 9 9 9 9 9 8 8 8 8 8 8 8 8 8 7 7 7 7 7 7 7 7 7 6 6 6 6
10 10 10 10 10 10 10 9 9 9 9 9 9 9 8 8 8 8 8 8 8 8 8 7 7 7 7 7 7 7 7 7 7 6 6 6 6 6
10 10 10 10 10 10 9 9 9 9 9 9 9 8 8 8 8 8 8 8 8 7 7 7 7 7 7 7 7 7 6 6 6 6 6 6 6 6
10 10 10 10 10 10 10 9 9 9 9 9 8 8 8 8 8 8 8 8 8 7 7 7 7 7 7 6 6 6 6 6 6 6 6 6 6 6
10 10 10 10 10 10 10 9 9 9 9 8 8 8 8 8 8 8 8 7 7 7 7 7 7 7 6 6 6 6 6 6 6 6 6 6 6 6
10 10 10 10 10 9 9 9 9 9 8 8 8 8 8 8 8 8 7 7 7 7 7 7 7 7 6 6 6 6 6 6 6 6 6 6 6 6
10 10 10 10 9 9 9 9 9 9 9 8 8 8 8 8 7 7 7 7 7 7 7 7 6 6 6 6 6 6 6 6 6 6 5 5 5 5
10 10 9 9 9 9 9 9 9 8 8 8 8 8 7 7 7 7 7 7 7 6 6 6 6 6 6 6 6 6 6 5 5 5 5 5 5 5

GEFSNE_850_meantemp_210.txt.gz
Temperature
16 16 16 16 16 16 16 16 16 15 15 14 14 14 13 13 13 13 13 13 13 13 13 13 13 13 13 13 13 12 12 12 12 12 12 12 12 12
16 16 16 16 15 15 15 15 15 15 15 14 14 14 13 13 13 13 13 13 13 13 13 13 12 12 12 12 12 12 12 12 12 12 12 12 11 11
15 15 15 15 15 15 15 15 15 15 15 14 14 13 13 13 12 12 12 12 12 12 12 12 12 12 12 12 12 11 11 11 11 11 11 11 11 11
15 15 15 15 15 15 15 14 14 14 14 14 13 13 12 12 12 12 12 12 12 12 12 11 11 11 11 11 11 11 11 11 11 10 10 10 10 10
15 15 15 14 14 14 14 14 14 14 14 13 13 13 12 12 12 12 11 11 11 11 11 11 11 11 11 10 10 10 10 10 10 10 10 10 9 9
15 14 14 14 14 14 14 14 14 14 13 13 13 12 12 12 12 12 11 11 11 11 11 11 10 10 10 10 10 10 10 9 9 9 9 9 9 9
14 14 14 14 14 14 14 13 13 13 13 13 13 12 12 12 12 12 11 11 11 11 10 10 10 10 10 10 9 9 9 9 9 9 9 9 8 8
14 14 14 14 14 13 13 13 13 13 13 13 12 12 12 12 11 11 11 11 11 10 10 10 10 10 9 9 9 9 9 9 9 8 8 8 8 8
13 13 13 13 13 13 13 13 13 12 12 12 12 12 11 11 11 11 11 11 10 10 10 10 9 9 9 9 9 9 8 8 8 8 8 8 8 8
13 13 13 13 12 12 12 12 12 12 12 12 11 11 11 11 11 11 11 11 10 10 10 10 10 9 9 9 8 8 8 8 8 8 8 8 8 7
13 13 12 12 12 12 12 12 12 12 11 11 11 11 11 11 11 11 10 10 10 10 9 9 9 9 9 9 8 8 8 8 8 8 7 7 7 7
12 12 12 12 12 12 11 11 11 11 11 11 11 11 11 10 10 10 10 10 10 10 9 9 9 9 9 9 8 8 8 8 8 7 7 7 7 7
12 12 12 12 12 11 11 11 11 11 11 11 10 10 10 10 10 10 10 10 10 10 9 9 9 9 9 9 9 8 8 8 7 7 7 7 7 7
12 12 11 11 11 11 11 11 11 11 11 11 11 10 10 10 10 9 9 9 9 9 9 8 9 9 9 9 9 9 8 8 7 7 7 7 7 7
11 11 11 11 11 11 11 11 10 10 11 11 11 10 10 10 9 9 9 9 9 9 8 8 8 8 8 9 9 9 8 8 8 7 7 7 7 7
11 11 11 11 11 11 10 10 10 10 10 11 10 10 10 10 9 9 9 9 9 9 8 8 8 8 8 8 9 9 8 8 8 7 7 7 7 7
11 11 11 11 11 11 11 10 10 10 10 10 10 10 10 10 10 9 9 9 9 9 9 8 8 8 8 8 8 8 8 8 8 7 7 7 7 7
11 11 11 11 11 11 11 10 10 10 10 10 10 10 10 10 10 9 9 9 9 9 9 9 8 8 8 8 8 8 8 8 8 7 7 7 7 7
10 11 11 11 10 10 10 10 10 10 10 10 10 10 10 10 10 9 9 9 9 9 9 9 9 8 9 9 8 8 8 8 7 7 7 7 7 7
10 10 10 10 10 10 10 10 10 10 9 9 9 9 9 9 9 9 9 9 9 9 9 9 8 8 8 8 8 8 8 7 7 7 7 7 7 7
10 10 10 10 10 10 10 9 9 9 9 9 9 9 9 9 9 9 9 8 8 9 9 9 8 8 8 7 8 8 8 7 7 7 7 7 7 7
10 10 10 10 9 9 9 9 9 9 9 8 8 8 8 8 8 8 9 8 8 8 8 8 8 8 7 8 8 8 8 7 7 7 7 6 6 6
10 9 9 9 9 9 9 9 9 9 8 8 8 8 8 8 8 8 8 8 8 8 8 8 8 8 8 8 8 8 8 7 7 7 7 6 6 6

GEFSNE_850_meantemp_216.txt.gz
Temperature
17 17 17 17 16 16 16 16 16 15 15 15 14 14 14 14 14 14 14 14 14 14 14 13 13 13 13 13 13 13 13 13 12 12 12 12 12 12
16 16 17 16 16 16 16 16 16 16 15 15 14 14 14 14 14 13 13 13 13 13 13 13 13 13 13 13 12 12 12 12 12 12 12 12 11 11
16 16 16 16 16 16 16 16 16 15 15 14 14 14 14 13 13 13 13 13 13 13 13 13 13 12 12 12 12 12 11 11 11 11 11 11 11 11
16 16 16 16 16 16 16 15 15 15 15 14 14 13 13 13 13 13 13 13 13 12 12 12 12 12 12 12 11 11 11 11 11 11 11 11 10 10
16 16 16 16 15 15 15 15 15 15 14 14 14 13 13 13 13 13 12 12 12 12 12 12 12 11 11 11 11 11 11 10 10 10 10 10 10 10
15 15 15 15 15 15 15 15 15 14 14 14 13 13 13 13 13 12 12 12 12 12 12 12 11 11 11 11 11 10 10 10 10 10 9 9 9 9
15 15 15 15 15 14 14 14 14 14 14 13 13 13 13 12 12 12 12 12 12 11 11 11 11 11 11 10 10 10 10 10 10 9 9 9 9 9
15 15 14 14 14 14 14 14 14 14 14 13 13 13 13 12 12 12 12 12 11 11 11 11 11 11 10 10 10 10 10 10 9 9 9 9 9 8
14 14 14 14 14 14 14 13 14 13 13 13 13 13 12 12 12 12 12 12 12 11 11 11 11 10 10 10 10 10 10 9 9 9 9 8 8 8
14 14 14 13 13 13 13 13 13 13 13 13 13 12 12 12 12 12 12 11 11 11 11 11 10 10 10 10 10 10 9 9 9 9 8 8 8 8
14 14 13 13 13 13 13 13 13 13 12 12 12 12 12 12 12 11 11 11 11 11 11 11 10 10 10 10 10 9 9 9 9 8 8 8 8 8
14 13 13 13 13 13 13 12 12 12 12 12 12 12 12 12 11 11 11 11 11 10 10 10 10 10 10 10 10 9 9 9 9 8 8 8 8 8
13 13 13 13 13 12 12 12 12 12 12 12 12 11 11 11 11 11 11 11 11 10 10 10 10 10 10 9 9 9 9 9 9 9 8 8 8 7
13 13 13 13 13 12 12 12 12 12 12 11 11 11 11 11 11 11 11 11 11 11 10 10 10 10 10 9 9 9 9 9 9 9 8 8 8 7
13 13 12 12 12 12 12 12 12 12 11 11 11 11 11 11 11 11 11 11 10 10 10 10 10 10 10 9 9 9 9 9 9 9 8 8 8 8
12 12 12 12 12 12 12 12 11 11 11 11 11 11 11 11 11 11 10 10 10 10 10 10 10 10 9 9 9 9 9 9 9 9 8 8 8 8
12 12 12 12 12 12 12 11 11 11 11 11 11 11 11 11 10 10 10 10 10 10 10 10 10 10 9 9 9 9 9 9 9 9 8 8 8 8
12 12 12 12 12 12 11 11 11 11 11 11 11 11 11 10 10 10 10 10 10 10 10 10 9 9 9 9 9 9 9 9 9 8 8 8 8 8
12 12 11 11 11 11 11 11 11 11 11 11 10 10 10 10 10 10 10 10 10 10 10 9 9 9 9 9 9 9 9 9 8 8 8 8 8 8
11 11 11 11 11 11 11 11 11 11 10 10 10 10 10 10 10 10 10 10 10 10 9 9 9 9 9 9 9 9 9 9 8 8 8 8 8 8
11 11 11 11 11 11 11 10 10 10 10 10 10 10 10 9 9 9 9 9 9 9 9 9 9 9 9 9 8 9 9 9 8 8 8 8 7 7
11 11 11 11 11 10 10 10 10 10 10 10 9 9 9 9 9 9 9 9 9 9 9 9 9 9 9 8 8 8 8 9 8 8 8 8 7 7
11 11 11 10 10 10 10 10 10 10 10 9 9 9 9 9 9 9 9 9 9 9 9 9 9 8 8 8 8 8 8 8 8 8 8 8 8 7

GEFSNE_850_meantemp_222.txt.gz
Temperature
17 17 17 16 16 16 16 16 16 15 14 14 14 14 14 14 14 14 14 14 14 14 14 13 13 13 13 13 13 13 13 12 12 12 12 12 12 12
17 16 16 16 16 16 16 15 15 15 15 14 14 14 14 14 14 14 14 13 13 13 13 13 13 13 13 13 12 12 12 12 12 12 12 12 12 11
16 16 16 16 16 16 15 15 15 15 15 14 14 14 13 13 13 13 13 13 13 13 13 13 13 12 12 12 12 12 12 12 12 11 11 11 11 11
16 16 16 16 16 15 15 15 15 15 14 14 14 13 13 13 13 13 13 13 12 12 12 12 12 12 12 12 12 11 11 11 11 11 11 11 11 10
16 16 16 16 15 15 15 15 15 15 14 14 14 13 13 13 13 12 12 12 12 12 12 12 12 12 11 11 11 11 11 11 11 10 10 10 10 10
16 15 15 15 15 15 15 15 15 14 14 14 13 13 13 12 12 12 12 12 12 12 12 11 11 11 11 11 11 11 11 10 10 10 10 10 10 9
15 15 15 15 15 14 14 14 14 14 14 13 13 13 12 12 12 12 12 12 12 11 11 11 11 11 11 11 11 11 10 10 10 10 9 9 9 9
15 15 15 14 14 14 14 14 14 13 13 13 13 12 12 12 12 12 11 11 11 11 11 11 11 11 11 10 10 10 10 10 10 9 9 9 9 9
15 14 14 14 14 14 13 13 13 13 13 13 13 12 12 12 12 12 11 11 11 11 11 11 11 11 10 10 10 10 10 10 9 9 9 9 9 8
14 14 14 14 14 13 13 13 13 13 13 13 12 12 12 12 12 12 11 11 11 11 11 11 11 10 10 10 10 10 10 9 9 9 9 9 8 8
14 14 14 14 13 13 13 13 13 13 13 12 12 12 12 12 11 11 11 11 11 11 11 10 10 10 10 10 10 10 9 9 9 9 9 8 8 8
14 14 13 13 13 13 13 13 13 13 12 12 12 12 12 11 11 11 11 11 11 10 10 10 10 10 10 10 10 10 9 9 9 9 9 8 8 8
14 13 13 13 13 13 12 12 12 12 12 12 12 11 11 11 11 11 11 11 11 11 10 10 10 10 10 10 10 9 9 9 9 9 9 8 8 8
14 13 13 13 13 12 12 12 12 12 12 11 11 11 11 11 11 11 11 10 10 10 10 10 10 10 10 9 9 9 9 9 9 9 9 8 8 8
13 13 13 12 12 12 12 12 12 12 11 11 11 11 11 11 11 11 10 10 10 10 10 10 10 10 9 9 9 9 9 9 9 9 8 8 8 8
12 12 12 12 12 12 12 12 11 11 11 11 11 11 11 11 11 10 10 10 10 10 10 10 10 9 9 9 9 9 9 9 9 9 8 8 8 8
12 12 12 12 12 12 12 11 11 11 11 11 11 11 11 10 10 10 10 10 10 10 10 10 10 9 9 9 9 9 9 9 9 9 8 8 8 8
12 12 12 12 12 11 11 11 11 11 11 11 11 11 10 10 10 10 10 10 10 9 9 9 9 9 9 9 9 9 9 9 9 8 8 8 8 8
12 12 11 11 11 11 11 11 11 11 11 11 10 10 10 10 10 10 10 9 9 9 9 9 9 9 9 8 9 9 9 9 8 8 8 8 8 8
11 11 11 11 11 11 11 11 11 11 10 10 10 10 10 10 9 9 9 9 9 9 9 9 9 9 9 9 9 9 9 9 8 8 8 8 8 8
11 11 11 11 11 11 11 10 10 10 10 10 10 10 9 9 9 9 9 9 9 9 9 9 9 9 9 8 8 8 9 8 8 8 8 8 8 8
11 11 11 11 10 10 10 10 10 10 10 9 9 9 9 9 9 9 9 9 9 8 8 8 8 8 8 8 8 8 8 8 8 8 8 8 8 8
11 11 10 10 10 10 10 10 10 10 9 9 9 9 9 9 9 9 8 8 8 8 8 8 8 8 8 8 8 8 8 8 8 8 8 8 7 7

GEFSNE_850_meantemp_228.txt.gz
Temperature
16 16 16 16 16 15 15 15 15 14 14 14 14 14 14 14 14 14 14 13 13 13 13 13 13 13 13 13 13 13 13 13 12 12 12 12 12 12
16 16 16 16 16 15 15 15 15 15 14 14 14 14 13 13 13 13 13 13 13 13 13 13 13 13 13 13 13 12 12 12 12 12 12 12 12 11
16 16 16 16 15 15 15 15 15 14 14 14 14 13 13 13 13 13 13 13 13 12 12 12 12 12 12 12 12 12 12 12 12 12 11 11 11 11
16 16 16 16 15 15 15 15 15 14 14 14 14 13 13 13 13 13 12 12 12 12 12 12 12 12 12 12 11 11 11 11 11 11 11 11 11 11
16 15 15 15 15 15 15 14 14 14 14 14 13 13 13 13 12 12 12 12 12 12 12 12 12 11 11 11 11 11 11 11 11 10 10 10 10 10
15 15 15 15 15 15 14 14 14 14 14 13 13 13 13 12 12 12 12 12 12 11 11 11 11 11 11 11 11 11 10 10 10 10 10 10 10 10
15 15 15 15 14 14 14 14 14 14 13 13 13 13 12 12 12 12 12 11 11 11 11 11 11 11 11 11 10 10 10 10 10 10 9 9 9 9
15 15 15 14 14 14 14 14 13 13 13 13 13 12 12 12 12 11 11 11 11 11 11 11 11 11 11 10 10 10 10 10 9 9 9 9 9 9
15 15 14 14 14 14 14 13 13 13 13 13 13 12 12 12 11 11 11 11 11 11 11 11 11 11 10 10 10 10 10 10 9 9 9 9 9 9
15 14 14 14 14 14 13 13 13 13 13 12 12 12 12 12 11 11 11 11 11 10 10 10 10 10 10 10 10 10 10 9 9 9 9 9 9 9
15 14 14 14 14 13 13 13 13 13 12 12 12 12 11 11 11 11 11 11 10 10 10 10 10 10 10 10 10 10 10 9 9 9 9 9 8 8
14 14 14 13 13 13 13 13 13 12 12 12 12 11 11 11 11 11 11 10 10 10 10 10 10 10 10 10 10 10 9 9 9 9 9 9 8 8
14 14 13 13 13 13 12 12 12 12 12 12 12 11 11 11 11 11 11 10 10 10 10 10 10 10 10 10 10 9 9 9 9 9 9 9 8 8
14 13 13 13 12 12 12 12 12 12 12 11 11 11 11 11 11 11 10 10 10 10 10 10 10 10 10 9 9 9 9 9 9 9 9 8 8 8
13 13 12 12 12 12 12 12 11 11 11 11 11 11 11 11 11 10 10 10 10 10 10 10 10 10 9 9 9 9 9 9 9 9 8 8 8 8
13 12 12 12 12 11 11 11 11 11 11 11 11 11 11 11 11 10 10 10 10 10 10 10 9 9 9 9 9 9 9 9 9 8 8 8 8 8
12 12 12 12 11 11 11 11 11 11 11 11 11 11 10 10 10 10 10 10 10 10 10 9 9 9 9 9 9 9 9 8 8 8 8 8 8 8
12 12 11 11 11 11 11 11 11 11 11 11 10 10 10 10 10 10 9 9 9 9 9 9 9 9 9 9 9 8 8 8 8 8 8 8 8 8
11 11 11 11 11 11 11 11 11 10 10 10 10 10 10 10 9 9 9 9 9 9 9 9 8 8 8 8 8 8 8 8 8 8 8 8 8 8
11 11 11 11 11 11 10 10 10 10 10 10 10 10 9 9 9 9 9 9 9 8 8 8 8 8 8 8 8 8 8 8 8 8 8 8 8 8
11 11 11 11 11 10 10 10 10 10 10 9 9 9 9 9 8 8 8 8 8 8 8 8 8 8 8 8 7 8 8 8 8 8 8 8 7 7
11 11 11 11 10 10 10 10 10 10 9 9 9 9 9 8 8 8 8 8 8 8 8 8 8 8 8 7 7 7 8 8 8 8 7 7 7 7
11 11 10 10 10 10 10 10 9 9 9 9 9 9 8 8 8 8 8 8 8 8 7 7 7 7 7 7 7 7 7 7 7 7 7 7 7 7

GEFSNE_850_meantemp_234.txt.gz
Temperature
16 16 16 16 16 16 16 16 16 16 16 15 14 14 14 14 14 14 14 14 14 14 14 14 14 14 13 13 13 13 13 13 13 13 13 13 12 12
17 17 16 16 16 16 16 16 16 16 16 15 14 14 14 13 14 13 13 13 13 13 13 13 13 13 13 13 13 13 13 13 12 12 12 12 12 12
16 16 16 16 16 16 15 15 15 15 15 14 14 14 13 13 13 13 13 13 13 13 13 13 13 13 13 13 12 12 12 12 12 12 12 12 12 12
16 16 16 16 16 15 15 15 15 15 15 14 14 13 13 13 13 13 12 12 12 12 12 12 12 12 12 12 12 12 12 12 12 12 11 11 11 11
16 16 16 16 15 15 15 15 15 15 14 14 13 13 13 13 12 12 12 12 12 12 12 12 12 12 12 12 12 11 11 11 11 11 11 11 11 11
16 16 15 15 15 15 15 15 14 14 14 14 14 13 13 12 12 12 12 12 12 12 11 12 12 12 12 11 11 11 11 11 11 11 10 10 10 10
16 16 15 15 15 15 15 15 14 14 14 14 13 13 13 12 12 12 12 12 12 12 11 11 11 11 11 11 11 11 11 11 10 10 10 10 10 10
16 15 15 15 15 15 15 15 14 14 13 13 13 13 13 13 12 12 12 12 12 11 11 11 11 11 11 11 11 11 11 10 10 10 10 10 10 9
15 15 15 15 15 15 15 14 14 14 13 13 13 13 13 12 12 12 12 12 12 11 11 11 11 11 11 11 11 11 10 10 10 10 10 9 9 9
15 15 15 14 14 14 14 14 14 14 13 13 13 13 12 12 12 12 12 11 11 11 11 11 11 11 11 11 11 11 10 10 10 10 9 9 9 9
15 15 14 14 14 14 14 13 13 13 13 13 13 12 12 12 12 12 11 11 12 12 11 11 11 11 11 11 11 11 10 10 10 10 9 9 9 9
15 14 14 14 14 14 13 13 13 13 13 13 12 12 12 12 12 11 11 11 12 12 11 11 11 11 11 11 10 10 10 10 10 10 9 9 9 9
14 14 14 14 14 14 13 13 13 12 12 12 12 12 12 11 11 11 11 11 11 11 11 11 11 11 11 11 10 10 10 10 10 9 9 9 9 8
14 14 14 14 14 13 13 13 12 12 12 12 12 12 12 11 11 11 11 11 11 11 11 10 10 10 11 11 11 10 10 10 9 9 9 9 9 9
14 14 13 13 13 13 12 12 12 12 12 12 12 12 12 11 11 11 11 11 11 11 10 10 10 10 10 10 10 10 10 9 9 9 9 9 9 9
13 13 13 13 12 12 12 12 11 11 11 11 11 11 11 11 11 11 10 10 10 10 10 10 10 10 10 10 10 10 10 9 9 9 9 9 9 9
13 13 12 12 12 12 11 11 11 11 11 11 11 11 11 11 10 10 10 10 10 10 10 10 10 10 9 9 9 9 9 9 9 9 8 9 9 9
12 12 12 12 12 12 11 11 11 11 11 11 11 11 10 10 10 10 10 10 10 10 9 9 9 9 9 9 9 9 9 9 9 9 8 9 9 9
12 12 12 12 11 12 11 11 11 11 11 10 10 10 10 10 10 10 9 9 9 9 9 9 9 9 9 9 9 9 9 9 9 9 9 9 9 9
12 12 12 12 11 11 11 11 11 11 10 10 10 10 10 9 9 9 9 9 9 9 9 9 9 9 9 9 9 9 9 9 9 9 9 9 9 9
12 12 12 11 11 11 11 10 10 10 10 10 10 10 9 9 9 9 9 9 9 9 9 9 8 8 8 8 9 9 9 9 8 8 8 8 9 8
11 11 11 11 11 11 10 10 10 10 10 9 9 9 9 9 9 9 9 9 9 9 9 8 8 8 8 8 8 9 9 8 8 8 8 8 8 8
11 11 11 11 10 10 10 10 10 10 9 9 9 9 9 9 9 9 9 8 8 8 8 8 8 8 8 8 8 9 9 8 8 8 8 8 8 8

GEFSNE_850_meantemp_240.txt.gz
Temperature
17 17 17 17 17 17 17 17 17 16 16 16 15 15 15 15 15 15 15 15 14 14 14 14 14 14 14 14 14 13 13 13 13 13 13 13 13 13
17 17 17 17 17 17 17 17 17 17 16 16 15 15 15 15 15 14 14 14 14 14 14 14 14 14 14 13 13 13 13 13 13 13 13 12 12 12
18 17 17 17 17 17 17 17 17 16 16 16 15 15 15 14 14 14 14 14 14 14 14 14 14 14 13 13 13 13 13 13 13 12 12 12 12 12
17 17 17 17 17 17 17 17 16 16 16 16 15 15 14 14 14 14 14 14 14 14 14 13 13 13 13 13 13 13 12 12 12 12 12 12 12 12
17 17 17 17 17 16 16 16 16 16 16 15 15 15 14 14 14 14 13 13 13 13 13 13 13 13 13 13 12 12 12 12 12 12 11 11 11 11
17 17 17 17 16 16 16 16 16 16 16 15 15 14 14 14 13 13 13 13 13 13 13 13 13 13 13 12 12 12 12 12 11 11 11 11 11 11
17 17 16 16 16 16 16 16 15 15 15 15 14 14 14 13 13 13 13 13 13 13 13 13 13 12 12 12 12 12 12 12 11 11 11 11 11 10
17 17 16 16 16 16 16 15 15 15 15 14 14 14 14 14 13 13 13 12 12 13 12 12 12 12 12 12 12 12 12 11 11 11 11 11 10 10
16 16 16 16 16 16 16 15 15 15 15 14 14 14 14 14 13 13 13 13 13 13 12 12 12 12 12 12 12 12 12 11 11 11 11 11 10 10
16 16 16 16 16 16 15 15 15 15 15 14 14 14 14 13 13 13 13 12 12 12 12 12 12 12 12 12 12 12 12 11 11 11 11 11 10 10
16 16 16 16 16 15 15 15 15 15 14 14 14 14 14 13 13 12 12 12 12 12 12 12 12 12 12 12 12 12 11 11 11 11 11 10 10 10
16 16 16 16 16 15 15 15 14 14 14 14 14 14 13 13 13 13 12 12 12 12 12 12 12 12 11 11 11 11 11 11 11 11 10 10 10 10
16 16 16 16 15 15 14 14 14 14 13 13 13 13 13 13 13 13 12 12 12 12 12 12 11 11 11 11 11 11 11 11 11 11 10 10 10 10
16 15 15 15 15 15 14 14 14 13 13 13 13 12 12 13 13 12 12 12 12 12 11 11 11 11 11 11 11 11 11 11 11 11 10 10 10 9
15 15 15 15 14 14 14 14 13 13 13 13 12 12 12 12 12 12 12 11 11 11 11 11 11 11 11 11 11 11 11 10 10 10 10 10 10 10
15 14 14 14 14 14 13 13 13 13 13 12 13 12 12 12 12 12 11 11 11 11 11 11 11 11 11 11 11 11 10 10 10 10 10 10 10 10
14 14 14 13 13 13 13 13 13 13 12 12 12 12 12 11 11 11 11 11 11 11 11 11 11 10 10 10 10 10 10 10 10 10 10 9 9 10
14 13 13 13 13 13 12 12 12 12 12 12 12 12 12 11 11 11 11 11 10 10 10 10 10 10 10 10 10 10 10 10 10 10 9 9 9 9
13 13 13 13 12 12 12 12 12 12 12 12 12 12 11 11 11 11 11 10 10 10 10 10 10 9 9 9 10 10 10 10 9 9 9 9 9 9
13 13 13 12 12 12 12 12 12 12 12 11 11 11 11 11 11 10 10 10 10 10 10 10 9 9 9 9 9 10 10 9 9 9 9 9 9 9
13 12 12 12 12 12 12 12 12 11 11 11 11 11 11 11 11 10 10 10 10 10 10 9 10 9 9 9 9 9 9 9 9 9 9 9 9 9
12 12 12 12 12 12 11 11 11 11 11 11 11 11 11 10 10 10 10 10 10 10 9 9 9 9 9 9 9 9 9 9 9 9 9 9 9 9
12 12 12 11 11 11 11 11 11 11 11 11 11 10 10 10 10 10 10 10 10 10 9 9 9 9 9 9 9 9 9 9 9 9 9 9 9 9